GFSCGP_500_spd_000.txt.gz
Wind_Speed
21 17 15 10 13 13 22 17 15 13 16 16 11 9 7 5 3 5 8 7 6 10 11 14 17 19 21 19 22 25 25 30 38 47 53 52 51 43 41 42 46 51 49 46
15 23 16 16 20 22 24 20 15 18 15 11 4 5 3 1 1 2 4 5 7 11 14 16 20 19 20 24 25 30 36 42 46 50 52 52 50 48 48 45 44 44 45 46
16 22 24 27 25 20 19 22 17 11 7 7 5 7 5 4 6 7 8 9 13 16 15 17 18 20 28 33 37 37 41 44 46 50 50 44 42 41 42 42 43 43 48 53
16 22 25 26 23 22 21 19 18 13 14 12 13 13 10 12 12 13 14 15 18 17 19 22 21 26 30 37 37 40 42 49 50 49 47 45 42 42 42 43 46 50 54 59
16 20 23 22 21 20 19 17 13 15 16 18 18 18 17 17 18 19 20 21 22 21 23 26 31 36 37 33 39 42 52 52 49 47 45 43 42 44 47 49 52 55 57 59
18 16 19 23 18 15 14 15 15 16 18 21 18 20 20 21 20 21 21 22 24 27 27 26 34 39 41 40 44 48 41 42 43 41 40 42 44 46 47 51 55 59 62 65
17 15 17 18 17 17 17 16 17 19 20 21 21 25 23 22 19 20 23 26 28 30 28 25 29 38 39 42 43 39 43 41 41 42 45 46 48 51 54 58 62 64 67 73
17 17 17 18 18 17 16 16 18 19 20 20 20 18 14 14 16 19 21 23 23 22 21 22 28 32 37 40 41 43 41 42 46 49 50 50 51 53 57 61 64 68 72 77
16 13 13 14 15 15 14 14 12 12 14 16 15 8 5 4 6 8 9 12 15 17 20 23 27 32 37 36 37 40 42 41 43 46 48 51 55 58 61 63 67 73 77 80
15 13 11 12 12 11 11 8 8 7 8 6 2 1 3 2 4 7 9 13 17 19 23 26 28 29 32 35 39 43 47 50 52 53 54 57 59 62 64 68 73 77 82 87
15 15 14 12 11 11 9 7 5 4 3 3 2 3 6 8 10 13 16 18 21 24 27 30 33 36 38 41 44 47 51 54 57 58 59 61 63 65 70 74 77 81 86 89
15 17 15 14 13 10 8 7 7 7 8 8 8 6 10 13 16 18 21 24 27 30 34 37 40 42 44 47 49 51 54 57 58 60 62 64 66 70 74 76 80 85 87 91
17 18 19 16 14 12 9 7 8 9 10 10 12 14 15 16 18 20 23 27 31 35 38 40 43 45 47 49 51 54 57 58 61 62 63 66 70 73 75 78 83 86 90 92
19 18 17 15 16 16 13 12 14 15 16 16 18 19 20 19 21 24 27 31 34 37 40 42 45 47 49 51 53 56 59 60 60 62 65 69 72 75 77 82 86 88 90 97
20 19 19 18 18 18 18 18 19 20 21 21 22 22 25 25 26 27 30 33 37 40 42 45 47 50 52 53 55 59 58 59 60 64 68 71 74 77 80 84 87 89 96 96
22 21 22 21 21 21 22 22 23 24 26 27 27 27 29 30 31 33 35 37 40 42 45 47 51 53 54 55 57 58 58 59 62 65 69 73 76 79 83 86 87 97 97 94
24 25 25 27 26 28 27 23 28 29 30 32 32 33 34 34 34 36 38 40 42 44 47 50 55 56 56 56 59 59 58 61 64 69 72 75 78 82 86 88 95 97 93 84
25 28 31 32 31 35 27 29 32 35 36 34 36 39 39 39 39 39 42 43 44 48 50 52 56 55 56 58 59 58 60 64 69 71 74 78 81 84 87 93 96 92 82 69
28 30 33 36 37 39 37 34 37 40 40 37 42 44 44 43 43 42 46 44 47 50 51 53 54 54 56 59 59 60 64 67 70 74 78 81 83 85 92 93 90 84 70 58
26 30 34 37 40 43 41 40 42 45 46 43 46 46 46 47 47 47 48 48 51 53 52 53 54 55 58 60 61 63 66 69 73 78 79 81 83 90 92 88 84 71 60 49
29 31 35 38 42 46 44 45 45 48 48 51 49 48 49 49 50 48 48 50 54 55 55 55 55 58 60 62 63 65 67 72 77 78 79 81 90 93 87 82 71 61 52 41
30 34 36 39 43 46 44 47 48 49 50 50 50 50 50 51 50 49 50 52 56 57 56 56 58 60 62 63 65 67 71 77 78 78 80 89 91 88 81 70 61 52 44 36
35 35 39 41 42 45 48 49 50 49 49 48 50 50 50 49 50 51 54 55 57 57 58 58 60 62 63 66 68 71 76 78 76 79 88 89 87 80 69 61 53 45 38 34
39 41 42 42 41 44 47 49 47 48 48 48 48 48 48 50 52 54 56 57 58 60 59 60 60 61 66 69 71 74 78 74 79 87 87 87 79 68 61 53 46 40 35 32
42 39 40 43 42 44 43 42 45 46 45 46 46 48 49 52 54 55 56 57 58 58 58 59 62 63 68 70 73 78 73 79 84 85 85 77 67 62 55 46 39 35 31 29
35 35 40 42 41 41 41 42 42 43 42 46 49 51 53 55 54 55 55 54 55 55 58 61 64 67 69 72 75 71 79 82 82 82 74 66 62 58 48 40 34 31 32 32

GFSCGP_500_spd_003.txt.gz
Wind_Speed
15 12 18 11 6 11 9 11 15 13 12 12 8 7 7 6 8 10 11 10 10 11 9 12 14 17 20 18 20 21 25 34 39 43 44 45 47 52 53 48 40 37 38 39
18 14 13 12 12 12 13 18 9 13 10 9 8 8 6 6 4 4 3 5 8 10 11 14 18 17 21 21 25 29 34 39 40 44 46 51 55 53 49 43 40 39 39 40
17 16 14 13 17 13 23 18 12 8 5 8 7 6 3 3 3 4 6 8 11 11 13 14 17 21 23 26 31 35 41 35 39 44 48 51 47 45 42 41 42 44 46 48
19 14 21 18 19 20 24 20 18 13 11 11 10 9 5 6 7 9 12 13 13 14 11 15 18 23 25 34 35 38 42 43 47 50 48 50 50 47 46 47 48 49 50 52
23 22 18 17 20 24 19 17 17 22 20 17 13 11 8 8 11 14 15 14 14 16 17 21 24 25 26 30 34 36 42 42 44 45 46 44 42 43 45 47 49 51 54 56
24 18 14 20 23 18 18 19 17 17 19 17 13 15 11 14 17 16 15 14 15 16 19 23 26 26 26 32 36 35 39 43 45 48 48 48 49 51 53 54 54 54 57 61
19 18 15 18 22 20 20 18 16 18 18 16 15 19 16 17 15 13 14 13 14 16 17 19 22 23 25 28 32 35 38 42 45 47 48 50 51 51 52 54 57 59 61 64
18 20 19 17 19 20 20 19 18 19 19 18 19 14 13 10 10 11 11 9 9 10 12 15 19 22 26 29 32 35 38 42 45 47 50 51 52 53 55 58 60 62 65 69
16 16 15 15 18 20 19 19 17 18 15 13 12 7 6 6 8 5 4 5 8 10 13 16 20 25 28 31 35 38 40 43 46 50 52 55 57 58 59 60 62 65 69 72
14 16 15 15 17 17 16 13 12 10 8 6 2 4 5 4 4 5 7 8 11 13 15 19 23 27 30 32 35 39 42 47 49 51 55 58 58 60 60 61 64 67 71 74
16 17 16 15 14 13 12 10 9 7 5 4 5 3 6 7 6 9 11 13 15 17 20 24 28 31 35 38 42 46 50 52 53 53 55 58 60 59 60 63 66 69 74 79
17 17 17 16 15 12 10 9 8 7 8 9 8 6 8 12 13 14 16 17 20 23 26 29 33 36 40 42 46 50 51 53 54 55 58 60 60 61 63 65 70 74 78 83
16 17 18 16 15 13 12 11 10 9 10 10 11 14 15 17 18 19 21 24 27 29 33 36 38 39 42 44 49 51 53 55 55 58 61 62 62 63 66 70 74 77 82 86
18 16 17 17 17 18 16 16 14 13 13 15 15 18 23 23 23 24 26 30 33 35 37 39 40 42 44 47 51 53 54 56 58 60 63 63 64 66 69 73 76 81 85 86
18 17 18 21 22 21 20 20 19 18 20 21 21 22 29 29 30 30 32 35 37 39 42 44 44 46 48 51 53 54 56 58 59 62 63 63 65 68 71 76 80 82 86 91
19 19 22 23 23 24 24 22 22 24 25 27 29 27 34 35 37 36 37 40 41 43 46 48 48 49 52 55 55 57 58 59 61 62 63 64 67 70 74 78 81 84 91 96
21 21 23 25 26 28 30 22 27 29 31 33 33 34 38 39 41 41 42 43 44 47 49 51 51 52 56 56 57 58 59 60 62 63 64 66 69 73 77 80 82 89 94 93
20 22 25 28 29 34 28 28 32 35 37 39 40 41 43 44 45 44 45 47 48 50 51 52 53 54 56 57 58 59 59 61 63 63 65 69 73 76 79 81 87 93 91 79
20 24 27 30 32 34 35 35 38 41 43 45 46 48 49 50 50 48 51 49 51 52 53 53 53 54 56 57 58 59 60 62 63 65 69 71 76 78 79 86 91 89 78 70
21 24 27 29 33 35 36 39 41 44 47 47 50 50 52 52 53 51 51 52 53 53 53 53 54 55 56 57 59 59 61 62 64 68 70 74 78 79 85 90 88 77 71 65
20 23 26 29 33 35 37 39 41 43 47 48 49 51 51 51 51 51 52 52 51 51 52 53 53 56 58 59 59 59 62 64 65 71 73 77 79 83 89 86 78 71 66 59
24 26 28 31 35 39 40 42 44 46 48 50 50 50 50 49 49 50 49 48 50 50 51 54 55 58 58 58 58 61 63 65 69 73 76 77 81 86 87 76 72 66 61 50
30 32 35 36 37 40 43 45 46 46 47 47 46 47 47 47 47 47 47 49 51 53 55 55 57 59 58 59 61 61 66 68 72 74 76 80 84 85 77 71 66 61 52 42
37 39 40 39 38 40 43 43 43 43 43 43 44 45 45 45 46 48 50 53 56 58 55 57 61 59 59 61 62 64 68 70 73 76 80 81 84 78 69 66 61 54 44 36
40 37 36 38 37 39 38 37 39 40 41 42 43 44 44 46 50 52 55 55 55 55 50 59 59 57 62 64 63 69 70 73 76 78 80 82 78 69 65 61 54 45 38 33
31 33 38 38 36 37 36 38 39 39 40 42 44 46 49 51 53 53 51 52 53 56 57 55 56 59 63 67 65 69 74 76 76 78 81 77 71 64 61 54 46 38 34 32

GFSCGP_500_spd_006.txt.gz
Wind_Speed
16 19 12 9 13 13 10 14 10 9 12 16 13 10 6 7 8 10 8 11 14 12 11 10 13 16 18 20 19 17 20 25 30 36 36 37 39 46 48 44 38 35 35 36
20 19 15 13 11 9 9 15 12 10 14 11 10 8 8 11 11 11 9 10 11 9 9 12 15 17 19 20 20 23 28 33 34 37 40 41 45 48 47 45 44 44 45 47
12 14 11 11 11 6 7 16 9 6 4 8 8 9 8 7 7 7 7 9 11 12 12 13 14 15 19 22 22 26 32 30 32 35 38 41 42 43 46 48 49 48 48 49
17 15 13 12 12 12 8 20 15 9 10 6 8 10 11 10 9 10 11 12 13 14 13 13 17 18 19 20 21 23 23 26 31 34 35 38 42 45 47 49 50 52 53 52
20 12 10 14 18 16 18 17 17 13 13 13 13 15 19 14 11 13 14 15 15 14 14 17 17 19 17 16 17 19 22 27 30 33 37 40 44 46 48 50 52 52 53 55
23 21 16 17 16 13 17 14 15 16 19 22 22 20 18 15 15 17 18 17 14 14 17 16 15 13 13 16 19 22 25 29 34 38 42 45 48 51 52 53 55 56 56 57
25 25 22 17 14 18 16 14 16 17 18 18 18 22 19 18 18 18 18 16 15 15 14 11 11 12 15 19 22 25 28 32 37 41 45 47 50 51 51 54 56 58 58 58
24 23 20 16 15 18 21 20 20 21 20 17 18 20 19 17 18 18 16 13 11 10 9 11 14 16 20 24 27 29 31 34 38 41 44 48 50 52 54 57 59 60 61 61
22 22 18 18 18 19 18 20 19 21 20 19 17 12 14 15 15 12 8 8 8 10 12 14 17 21 25 28 31 33 35 38 41 43 47 53 56 56 58 59 61 61 61 61
16 18 18 18 19 21 21 19 19 18 16 13 6 6 6 8 6 8 9 9 12 14 16 19 22 26 29 32 35 36 38 42 44 47 48 54 57 59 59 61 62 60 61 64
16 17 18 19 18 18 18 16 15 13 11 7 6 6 8 9 11 12 13 16 18 19 21 24 28 30 34 37 39 40 42 46 49 52 54 57 59 61 61 62 62 63 65 68
18 18 17 18 18 16 14 13 13 13 11 10 11 10 14 13 15 18 19 21 23 25 28 31 34 37 40 43 45 45 47 50 53 56 58 60 62 62 62 64 64 66 70 74
20 21 19 19 16 15 14 14 14 14 13 11 12 13 16 17 19 21 22 24 28 30 33 36 39 43 46 49 50 51 52 54 56 58 60 62 63 62 65 65 67 70 74 78
18 17 17 17 18 19 18 17 17 16 14 14 12 18 20 23 23 25 28 30 33 35 39 42 45 48 51 53 54 55 56 57 58 59 61 63 63 64 66 67 69 74 77 80
18 16 17 18 20 22 21 21 20 19 20 20 20 21 25 31 30 32 34 36 39 41 43 45 48 51 54 55 56 57 58 58 59 60 63 63 64 65 66 68 73 76 79 83
19 17 18 20 20 23 24 23 22 23 24 26 29 26 32 35 37 38 40 42 43 45 47 49 51 54 57 57 58 58 57 58 60 62 63 64 64 64 67 70 76 78 83 85
20 18 19 20 22 24 26 22 25 28 29 32 35 36 38 41 43 46 47 48 49 50 51 51 53 55 57 58 58 56 57 58 60 62 64 63 63 66 68 74 77 82 85 87
16 18 20 20 23 28 23 24 28 32 34 38 41 44 47 49 51 51 52 53 52 52 52 52 54 56 57 56 54 55 57 59 62 62 62 63 65 67 71 76 79 85 86 91
16 19 21 24 25 27 29 29 32 35 38 42 45 48 50 52 54 53 55 53 53 53 53 53 54 55 53 53 54 56 60 61 63 61 62 63 65 68 72 76 82 86 89 89
15 18 21 23 26 27 26 29 32 35 39 41 43 46 49 51 52 53 54 53 53 52 52 52 51 51 52 54 55 56 57 60 61 62 64 65 69 72 75 79 85 88 89 82
14 16 19 22 25 27 30 31 33 37 41 43 45 47 48 50 51 50 50 49 48 48 47 47 49 51 54 55 55 56 58 61 61 64 67 69 72 74 80 85 86 87 84 76
18 21 22 25 29 33 34 37 40 42 44 45 47 47 46 46 45 45 44 44 43 43 45 49 52 55 54 55 59 57 60 61 64 67 71 70 75 76 85 86 85 83 76 68
25 27 29 31 33 38 42 44 44 45 43 43 42 43 42 42 43 42 42 42 44 49 51 53 54 53 54 56 57 56 61 62 66 70 72 73 77 82 87 86 83 77 68 60
30 33 34 36 37 42 45 44 42 41 40 40 40 40 41 41 41 43 46 49 51 52 56 53 53 57 61 59 55 59 61 64 68 70 73 77 80 85 86 84 78 70 60 52
32 36 38 41 41 42 39 38 38 39 39 40 40 41 42 44 46 48 50 52 54 54 52 52 58 56 57 62 62 56 62 70 72 72 76 78 79 82 82 78 69 59 53 44
36 40 41 39 37 36 35 37 38 40 41 41 43 44 45 47 49 51 50 49 49 51 53 56 56 58 58 54 69 59 64 71 73 76 76 74 78 77 73 67 60 54 47 39

GFSCGP_500_spd_009.txt.gz
Wind_Speed
21 25 20 16 17 5 4 7 7 12 7 12 10 11 8 8 8 9 9 8 10 12 11 10 11 12 14 16 18 19 18 21 25 30 31 32 31 32 36 39 42 42 41 42
7 17 15 10 13 11 8 9 12 9 8 10 10 10 7 7 10 11 12 11 11 11 11 11 13 15 16 18 21 22 23 25 28 26 26 28 30 32 34 36 38 43 46 49
11 11 10 12 10 9 7 9 12 6 7 11 11 14 9 9 10 9 9 9 11 11 14 16 17 17 18 21 23 25 24 25 22 22 25 28 31 35 38 40 42 44 46 48
22 11 7 2 8 10 9 14 7 11 7 10 11 12 14 10 11 10 11 14 16 17 18 20 21 20 21 24 23 20 17 18 21 24 28 31 35 38 41 45 47 50 51 52
6 16 11 6 10 7 18 6 11 11 7 18 8 15 31 8 16 16 16 18 20 21 22 23 22 23 24 19 16 16 18 21 24 27 30 33 37 41 44 46 48 51 53 55
13 14 13 12 8 11 10 13 9 13 9 16 15 17 18 16 21 26 23 23 23 24 24 25 24 24 19 15 16 19 21 23 27 32 35 38 42 46 49 50 51 54 57 58
18 21 19 18 15 14 14 11 7 10 16 16 17 22 18 19 17 28 26 28 27 25 25 25 22 17 15 16 20 23 25 28 32 36 39 42 46 50 53 53 56 58 59 60
20 16 19 21 18 12 14 11 13 15 11 14 20 22 16 24 32 30 27 27 24 23 22 17 17 17 18 22 25 28 31 34 36 40 42 45 49 52 55 55 58 60 63 62
12 21 17 18 18 17 15 19 21 21 21 21 20 18 22 21 25 26 23 18 17 14 15 16 18 21 24 28 32 35 38 40 42 45 48 50 51 54 57 58 60 62 63 63
21 19 23 17 18 18 21 20 18 20 23 21 7 14 13 18 13 13 11 12 13 16 19 22 25 27 32 35 38 41 44 45 48 51 53 56 57 58 58 59 62 64 65 65
21 19 18 19 19 16 20 21 19 20 19 15 13 6 18 12 11 11 13 15 19 22 24 27 30 34 37 40 44 47 49 51 54 56 57 59 61 59 61 61 64 65 65 67
19 19 21 18 20 19 19 18 18 18 18 15 13 12 13 15 16 17 19 22 24 26 30 32 34 38 42 45 48 50 53 55 57 59 60 62 61 61 62 63 65 66 66 66
19 21 21 21 19 18 17 17 18 19 17 15 16 13 16 19 20 22 25 26 28 31 34 37 40 43 46 49 51 54 56 57 60 61 63 63 60 61 62 65 66 66 66 68
24 24 23 20 15 19 18 18 19 19 18 17 16 17 21 25 24 26 28 32 35 36 39 42 45 47 50 52 55 57 58 58 61 62 62 61 59 62 64 66 66 66 67 70
23 21 21 20 20 20 20 19 21 22 19 22 18 24 23 30 33 33 35 36 39 42 45 48 51 52 54 56 57 58 58 60 61 60 59 59 60 62 65 66 65 67 70 72
21 21 19 19 20 21 22 22 22 23 23 26 26 30 31 33 37 38 42 44 46 49 51 52 53 55 55 56 56 57 57 58 57 58 58 59 61 63 68 65 67 70 73 75
20 20 20 20 19 22 22 19 23 24 25 28 31 31 39 40 43 44 48 51 52 53 54 55 54 53 53 54 54 55 55 54 55 56 59 61 61 64 66 65 68 72 78 77
19 20 21 19 20 23 19 19 23 27 27 31 35 37 43 46 48 50 52 55 54 54 53 52 53 52 51 52 51 51 52 53 56 57 56 59 64 63 64 66 71 75 76 79
15 17 19 20 22 23 22 22 24 27 28 36 37 40 44 47 49 50 55 53 53 53 53 51 50 49 48 47 49 51 55 57 57 56 59 63 65 67 66 71 76 79 77 79
12 15 17 18 21 22 22 23 25 27 31 34 36 39 43 46 49 50 52 53 52 49 48 47 47 46 46 49 52 56 57 55 56 58 65 71 74 72 70 72 78 79 81 86
7 10 13 15 18 19 21 24 27 30 35 37 41 43 46 46 47 48 47 46 46 44 44 43 44 47 51 54 55 53 54 59 59 64 64 67 79 80 78 76 76 75 78 78
12 14 16 19 22 26 27 30 32 35 38 42 44 47 47 46 45 45 44 44 43 42 44 45 48 51 53 54 53 53 59 58 61 71 69 72 83 86 81 74 74 73 77 79
19 21 23 24 28 31 33 35 38 40 43 45 46 44 45 45 45 45 45 44 45 47 48 50 52 52 52 50 53 56 54 53 57 74 78 77 81 79 73 76 79 79 78 77
25 27 28 29 32 35 38 40 42 44 44 43 43 43 44 44 45 46 47 47 48 50 51 50 51 52 54 56 57 58 59 64 69 71 79 82 76 74 75 72 72 75 75 67
30 32 33 34 35 40 40 42 43 43 43 41 42 44 46 45 47 48 49 50 50 49 51 52 53 55 57 58 60 61 60 67 73 80 79 76 76 74 68 69 74 68 62 56
35 36 36 38 40 40 42 42 40 40 42 44 45 46 48 49 50 50 50 49 51 54 55 56 57 59 58 60 60 59 64 72 72 75 76 80 73 71 71 68 63 57 53 53

GFSCGP_500_spd_012.txt.gz
Wind_Speed
20 24 23 20 17 17 11 5 5 8 5 13 13 12 11 7 8 8 0 10 2 4 5 6 7 11 13 16 16 18 18 19 21 21 24 19 19 21 26 30 33 36 38 39
19 23 17 17 13 9 2 4 11 15 11 8 11 13 8 7 5 4 8 4 5 5 4 6 10 13 16 16 19 22 22 24 24 21 17 19 21 25 29 32 35 38 41 44
10 11 18 7 8 10 6 9 14 10 5 15 22 21 16 11 9 9 4 7 10 10 11 12 15 19 21 20 23 26 24 20 16 17 20 23 27 31 34 35 37 40 42 45
3 14 13 11 11 7 16 14 13 11 8 4 8 15 24 15 7 11 10 10 13 18 18 18 20 23 23 23 26 27 16 16 18 20 24 28 32 35 38 41 43 46 49 51
9 12 8 8 17 12 8 19 9 9 7 16 20 21 22 17 17 16 11 14 19 22 24 24 24 25 25 27 27 17 16 18 21 25 29 33 37 41 44 47 49 51 53 54
15 20 12 20 9 4 9 4 8 13 13 18 15 17 17 27 15 19 18 17 19 26 29 31 31 28 29 26 19 18 20 23 26 30 34 38 41 46 49 51 53 55 56 56
11 14 17 14 9 11 13 7 2 9 15 16 9 17 23 24 20 18 20 13 24 29 33 34 29 26 21 17 19 22 25 29 32 35 39 43 46 49 52 55 57 60 61 61
9 12 9 12 14 16 3 12 12 19 19 16 15 16 12 18 26 32 34 33 26 28 28 25 21 17 18 21 24 28 32 35 37 42 45 49 51 54 56 57 59 60 60 62
23 29 25 15 15 21 12 11 16 22 19 10 18 15 10 21 24 22 31 25 22 21 17 15 17 20 22 26 30 34 38 41 43 47 50 53 56 58 59 60 61 60 58 59
29 24 19 13 14 16 15 17 15 18 21 19 12 10 13 22 22 18 19 13 12 13 15 20 24 26 28 31 35 39 44 46 47 50 52 56 58 60 61 61 60 59 59 61
21 13 14 13 14 15 15 19 18 18 19 19 13 9 14 20 20 15 16 15 16 18 22 25 29 32 34 36 39 42 48 50 50 52 56 58 60 61 62 61 60 58 60 62
25 25 25 14 19 13 18 15 16 22 19 22 16 13 21 19 19 19 19 22 24 26 28 31 32 35 39 42 45 46 51 54 54 56 57 59 60 60 60 60 59 59 61 63
24 20 20 16 16 13 15 17 18 20 16 16 17 12 20 19 22 22 22 24 29 31 34 37 39 41 42 47 50 52 54 57 57 56 58 59 60 56 59 59 60 61 63 62
21 19 21 20 14 15 17 18 18 18 18 16 18 16 18 24 27 25 23 27 32 36 38 42 47 51 51 52 53 54 55 55 56 55 59 59 57 56 59 61 61 62 65 67
26 24 24 24 17 23 25 17 18 21 19 21 17 19 15 22 32 39 36 38 35 38 47 48 51 56 58 56 55 53 54 54 54 54 56 55 56 59 63 61 60 66 67 73
23 25 25 22 22 22 23 22 21 21 21 21 21 25 23 36 37 39 39 42 45 46 47 50 51 54 55 56 57 55 53 52 51 52 53 56 59 62 59 63 64 66 68 79
22 22 23 22 22 22 22 16 21 22 22 23 26 27 31 39 42 38 40 45 50 48 50 52 52 54 55 56 55 51 50 51 49 52 56 59 58 58 59 66 67 71 79 85
21 23 23 23 23 24 17 17 19 21 22 26 29 32 37 39 41 42 46 48 49 53 53 55 55 54 51 50 50 50 48 50 54 56 58 56 58 63 66 64 66 68 77 86
22 24 23 23 23 20 19 18 18 21 25 29 30 33 37 39 41 44 48 49 53 55 55 53 50 48 47 47 48 48 51 55 56 57 56 57 60 62 64 74 77 80 80 81
17 18 20 19 21 21 22 20 21 24 27 26 28 32 36 40 42 46 49 51 50 48 47 49 47 45 46 47 51 51 54 55 55 57 59 63 64 73 68 79 82 86 80 67
11 13 15 16 17 16 18 16 21 24 27 30 33 36 39 43 46 47 49 48 46 47 48 48 47 48 50 52 53 52 53 54 56 57 59 62 63 65 81 81 78 74 64 71
9 10 11 13 15 18 20 22 25 28 31 34 37 40 43 45 45 44 44 45 47 43 47 48 49 50 51 51 52 54 55 58 59 60 61 63 64 69 82 83 79 66 78 80
15 14 16 17 22 23 25 26 29 31 34 38 41 43 44 45 44 45 46 49 48 47 48 48 49 49 49 53 55 57 58 60 59 63 64 65 73 79 83 80 75 79 67 64
20 21 22 23 26 30 32 31 34 38 38 41 42 43 44 41 43 47 48 48 49 50 51 48 47 50 52 54 57 59 61 63 60 62 61 68 74 78 76 77 76 70 66 61
28 27 29 29 31 35 38 40 40 40 42 43 43 43 42 45 46 47 49 49 48 46 47 49 51 54 57 60 62 62 62 60 58 67 70 71 70 73 75 77 59 60 61 58
33 34 34 35 38 37 42 43 43 44 45 43 42 45 46 46 49 50 50 48 47 48 50 54 57 60 63 64 63 64 61 58 58 62 62 67 72 75 68 59 56 58 57 52

GFSCGP_500_spd_015.txt.gz
Wind_Speed
11 13 15 18 22 14 16 10 9 9 7 8 5 9 10 14 8 7 9 12 8 3 3 5 3 5 8 8 14 16 16 17 17 16 14 11 14 17 21 26 29 31 34 37
13 17 12 14 22 18 15 8 4 8 10 6 8 10 11 7 7 7 4 1 4 1 4 7 9 8 11 14 14 17 19 18 11 8 12 14 18 22 27 31 34 37 41 43
10 15 17 15 21 15 2 9 14 14 16 13 16 20 21 10 8 12 10 5 0 3 4 10 14 18 19 19 17 19 23 15 11 13 16 18 22 26 30 35 38 42 44 46
7 15 21 18 17 8 2 5 19 19 13 9 16 19 15 16 8 7 16 15 15 11 5 11 17 23 27 28 23 20 17 18 16 20 23 27 30 33 36 39 42 45 48 51
8 18 18 22 21 8 2 9 12 10 7 8 14 15 20 19 12 16 13 16 19 19 18 17 19 25 29 29 25 20 11 14 18 23 28 32 36 39 42 45 49 52 54 55
12 11 11 12 6 11 1 2 11 11 14 14 13 17 13 12 15 16 20 19 15 19 23 23 24 24 26 25 20 14 15 19 24 29 32 35 38 42 46 50 53 55 56 58
12 14 4 9 2 6 9 7 12 16 18 21 18 22 14 9 12 12 12 17 15 23 22 21 21 19 18 17 17 19 21 24 28 33 37 41 44 48 51 54 55 56 57 60
15 12 7 5 6 9 11 13 15 15 18 13 21 22 8 12 10 13 13 12 17 17 19 18 15 9 10 14 19 23 26 29 32 36 40 44 47 51 53 55 57 58 59 60
21 21 26 21 21 23 17 11 13 18 22 17 9 12 16 18 18 19 19 12 11 11 11 9 9 12 16 20 25 28 31 33 36 40 44 48 50 52 54 57 58 59 59 57
24 26 23 28 20 19 17 17 18 22 23 18 9 13 17 17 17 19 18 8 8 9 12 15 18 20 22 26 30 34 38 39 41 43 47 50 52 53 55 56 56 58 60 55
23 21 31 27 8 12 17 17 20 20 22 20 10 13 15 14 18 21 20 15 13 14 16 20 23 26 28 29 32 38 43 45 46 47 49 51 53 54 55 57 57 59 58 58
22 24 20 17 8 10 16 16 19 20 16 21 13 12 18 18 21 21 22 23 21 20 22 26 30 32 33 35 36 40 47 50 51 49 49 51 53 55 57 56 57 56 57 60
20 25 22 17 17 17 16 16 19 20 16 14 14 10 16 18 21 24 22 24 25 27 30 33 36 38 41 42 44 45 45 50 51 53 52 53 55 55 55 53 54 57 59 58
21 23 21 21 21 21 19 13 18 20 20 14 12 12 15 20 25 26 23 19 24 33 37 40 43 45 47 45 47 43 48 53 54 55 55 52 54 54 52 54 57 60 56 60
25 25 24 24 22 25 20 18 18 19 19 17 11 16 14 24 25 31 32 29 32 36 42 47 48 48 48 52 51 51 50 53 55 53 52 53 54 54 56 59 60 60 61 66
28 27 28 26 25 27 24 24 22 18 18 19 16 19 21 26 31 33 36 36 39 43 43 46 49 51 50 49 46 50 49 52 51 50 50 54 56 58 58 56 58 62 66 71
28 26 27 26 26 25 27 14 20 20 20 21 22 22 24 32 33 34 35 36 42 44 45 46 47 49 51 53 47 48 48 47 47 50 54 56 56 56 55 58 61 66 72 71
22 23 26 25 25 26 17 21 18 18 22 23 26 27 28 31 34 37 39 41 42 45 47 49 51 51 49 46 46 46 47 48 51 53 54 54 55 56 61 61 66 63 71 77
19 24 26 25 25 22 22 19 19 20 23 24 24 27 30 33 36 39 41 43 46 49 50 51 49 45 41 39 42 46 49 51 52 53 54 56 59 60 59 68 67 66 71 77
22 25 26 24 24 22 22 21 20 22 26 23 24 27 31 33 36 39 42 45 47 49 46 45 43 43 46 48 50 50 52 51 50 54 56 58 60 60 63 70 67 74 70 72
18 18 18 17 18 19 19 18 21 22 22 22 24 28 31 34 38 41 44 46 47 42 39 44 45 46 48 49 51 51 51 52 53 56 59 61 62 62 62 67 76 81 78 76
9 9 10 11 12 13 14 15 18 21 23 25 29 32 35 38 41 43 45 45 42 42 44 44 45 48 48 47 46 48 51 53 57 60 62 63 63 64 63 72 77 73 70 71
11 10 11 13 13 16 16 18 20 23 26 29 33 37 40 42 43 44 42 42 44 45 46 47 48 46 45 47 48 51 54 57 61 62 63 62 62 61 61 66 68 69 73 68
15 15 15 16 19 20 22 25 27 29 31 34 38 41 42 43 42 41 43 46 48 50 51 51 48 47 47 49 53 56 60 62 61 61 60 61 62 62 62 64 68 69 55 54
22 22 23 23 26 29 31 33 35 37 39 40 42 43 44 42 42 44 47 49 51 51 50 48 48 49 52 56 59 62 61 59 58 60 62 64 65 64 63 66 62 55 55 56
30 30 29 31 31 33 35 37 40 42 44 45 46 45 44 44 46 49 51 52 52 50 47 48 51 55 58 61 62 60 58 60 63 65 67 67 67 66 63 59 55 57 57 57

GFSCGP_500_spd_018.txt.gz
Wind_Speed
6 13 17 17 14 14 23 22 21 13 10 6 5 1 5 8 4 5 4 2 4 1 5 3 3 6 9 10 13 13 11 11 11 10 7 6 7 10 14 19 23 27 30 33
4 10 14 14 17 20 20 16 13 17 14 10 9 9 7 7 4 2 3 7 4 3 1 4 4 7 12 12 13 13 12 11 5 6 8 11 13 17 22 25 29 32 34 38
0 9 10 13 21 17 15 12 15 11 9 6 13 12 7 7 7 6 2 1 3 4 4 1 2 6 10 12 13 14 13 12 4 7 11 15 18 23 27 31 34 37 40 44
4 9 14 15 22 22 14 17 14 12 12 14 14 19 9 7 9 12 10 8 7 7 8 5 4 6 12 15 12 12 13 13 9 11 15 19 24 28 31 35 39 42 45 47
3 8 12 20 20 14 9 10 17 16 13 15 18 22 14 8 10 9 13 9 6 1 5 6 7 11 13 13 10 10 10 12 13 18 22 25 29 33 36 39 42 46 48 51
10 10 20 25 17 9 4 4 9 13 17 19 18 18 13 12 12 7 12 7 11 7 13 13 13 13 12 10 6 7 6 12 16 21 27 32 36 39 42 46 48 51 54 56
17 17 18 21 19 13 7 6 13 16 18 20 20 20 17 9 11 2 6 12 12 8 11 12 12 12 8 9 10 11 13 18 22 27 32 36 40 43 48 51 53 55 57 58
16 15 22 26 21 17 12 11 16 23 25 26 24 25 21 19 8 5 7 9 13 11 12 11 7 4 6 10 16 19 22 24 28 33 36 39 42 47 51 53 54 56 58 58
19 21 21 16 18 18 15 12 13 22 23 21 14 22 25 18 16 10 6 6 8 3 4 5 2 7 11 15 18 22 27 29 33 37 40 43 46 51 52 53 54 56 56 57
23 18 22 21 16 20 20 17 18 20 24 21 20 18 18 16 13 9 6 3 8 8 9 9 9 12 16 19 24 27 30 34 38 41 43 43 49 50 51 53 55 56 58 58
29 26 24 25 20 23 26 25 20 21 23 22 17 16 17 18 17 17 14 9 11 12 14 14 15 17 21 25 29 33 37 41 42 42 42 44 45 48 52 55 56 52 59 57
25 24 20 13 18 21 25 19 19 22 23 25 23 16 18 18 21 22 19 14 12 15 17 18 19 23 27 29 33 37 39 39 43 42 44 45 45 49 54 57 55 52 52 56
22 22 25 21 23 20 20 12 18 24 24 23 21 15 15 18 22 25 23 17 18 18 20 22 28 31 32 34 35 33 36 38 39 42 44 47 47 51 57 53 49 51 55 59
21 24 22 17 16 21 22 18 22 25 23 21 15 15 13 21 24 25 25 20 18 20 24 31 34 33 36 39 42 43 45 42 38 42 48 47 52 54 52 51 54 56 58 60
24 24 22 20 21 22 25 23 24 26 21 25 15 20 15 23 24 25 26 25 24 24 28 33 35 37 41 45 47 47 43 42 42 46 47 49 51 52 54 55 56 56 60 62
26 29 24 24 24 25 28 29 24 23 22 24 18 18 21 26 26 27 26 28 29 31 34 38 42 46 49 49 49 44 43 41 45 46 48 51 52 54 55 55 56 58 61 66
30 28 27 29 28 30 35 27 26 26 28 25 24 23 23 25 28 28 29 31 33 36 39 42 43 43 46 48 48 46 44 47 49 50 50 51 52 53 53 56 58 63 65 67
28 28 30 31 32 34 27 25 29 26 26 25 25 25 25 26 27 29 31 34 37 39 42 44 46 47 49 47 46 47 48 48 48 48 49 50 50 53 56 59 64 68 61 71
28 26 28 30 30 30 24 24 26 25 25 24 24 24 24 27 29 32 34 35 38 41 44 46 48 50 48 45 47 47 47 48 49 49 48 49 52 56 61 66 70 64 68 72
27 26 26 28 26 26 21 24 23 25 27 23 23 24 27 30 31 32 34 38 41 44 46 48 50 49 48 49 49 50 50 50 49 49 51 53 54 62 59 61 69 68 70 76
25 27 27 24 23 22 19 22 23 25 22 23 24 26 27 28 31 34 37 40 43 45 46 46 45 48 49 49 51 51 50 49 49 50 52 57 59 64 62 63 66 69 70 71
19 18 17 18 18 16 16 17 20 19 20 20 21 25 28 30 33 36 40 43 45 46 46 46 47 49 49 51 51 49 48 49 50 54 58 59 61 61 61 63 66 67 69 70
16 14 13 13 11 13 14 13 14 15 17 21 25 28 31 35 38 40 42 44 45 46 47 48 50 52 52 52 50 48 49 52 55 58 59 59 58 59 62 64 67 71 69 63
18 16 15 14 13 15 15 16 18 21 24 28 31 34 36 38 41 43 44 44 46 47 49 51 53 53 52 49 48 50 54 57 59 60 59 59 60 62 66 71 72 70 66 62
23 22 19 19 19 22 24 26 27 29 31 33 36 38 41 43 44 45 46 47 48 49 51 53 53 50 47 49 52 56 59 61 63 61 60 62 65 69 72 73 71 67 61 58
29 28 26 25 27 29 30 32 35 37 39 41 43 45 46 47 48 50 51 50 50 53 55 53 50 48 50 54 57 60 63 64 62 62 65 68 71 74 73 71 68 64 60 57

GFSCGP_500_spd_021.txt.gz
Wind_Speed
3 8 11 15 14 17 21 19 16 11 14 12 9 3 2 4 4 6 4 8 9 5 5 5 8 9 8 7 7 5 3 2 4 1 1 2 2 5 8 13 18 22 25 28
2 11 15 18 17 18 19 19 16 13 9 9 6 4 3 1 5 4 5 9 10 4 4 4 5 5 5 6 6 4 2 2 2 3 4 4 6 10 14 20 23 27 31 34
5 11 13 14 13 21 21 20 19 16 11 8 7 7 5 7 6 3 3 2 3 5 4 2 1 1 3 4 4 4 3 3 4 6 7 9 11 17 22 26 30 33 37 40
6 10 11 14 15 23 17 14 17 17 13 11 8 9 5 4 4 3 6 4 5 6 6 5 3 2 7 7 7 6 5 7 7 9 10 15 20 23 28 33 36 38 40 44
10 9 12 9 17 18 17 19 19 18 14 14 13 13 9 7 1 4 7 1 6 12 11 8 6 9 11 9 8 9 7 7 9 11 14 21 23 28 33 38 39 41 44 48
14 11 13 17 21 20 17 17 16 16 12 16 14 15 11 9 6 6 7 5 5 9 9 12 12 10 12 10 9 7 8 10 13 16 20 25 29 34 38 41 42 44 49 53
13 10 16 18 25 20 16 14 13 18 19 19 20 24 18 14 12 9 11 7 7 10 8 10 11 13 10 7 8 10 13 15 16 19 24 29 33 37 39 44 45 47 54 54
19 17 13 16 25 20 18 18 18 18 20 22 23 23 16 18 13 7 15 11 9 13 12 10 10 11 11 9 10 15 16 18 22 26 31 35 38 42 43 46 48 52 56 53
25 24 20 22 22 23 22 19 16 19 23 25 25 21 14 17 19 17 16 15 12 9 8 4 5 6 9 10 14 18 19 22 27 32 36 40 42 40 43 48 53 55 54 53
26 23 23 24 20 26 21 18 18 19 22 22 20 22 19 15 13 18 25 15 12 10 8 7 7 10 12 13 16 21 25 30 34 37 41 40 40 42 48 50 52 51 51 53
31 26 24 26 26 17 19 21 22 25 28 28 24 18 17 18 16 16 17 17 14 13 12 12 14 15 16 18 21 25 29 35 38 39 40 42 43 43 45 51 53 52 54 58
25 31 29 25 21 21 19 27 27 27 26 24 23 15 16 21 19 19 20 21 17 14 15 17 18 19 20 24 27 31 35 36 39 39 41 41 42 46 51 52 53 53 59 57
27 31 32 32 25 25 20 17 22 26 28 28 23 19 16 21 25 25 23 14 14 15 18 21 22 22 27 30 32 32 34 34 35 39 38 41 44 51 52 52 53 58 56 58
25 25 24 21 21 23 23 20 24 29 32 24 22 21 23 21 24 26 24 19 14 16 19 22 23 28 30 31 33 35 37 39 39 43 43 45 51 52 48 52 57 56 56 57
22 29 26 21 23 24 23 22 26 25 24 24 20 23 21 25 26 25 25 20 20 21 23 25 28 29 30 33 35 36 38 40 43 45 46 50 51 51 51 53 56 56 56 57
27 23 23 22 24 26 27 25 26 23 24 27 27 25 21 24 22 24 25 25 25 25 28 30 30 32 35 37 40 43 46 46 46 46 47 50 51 52 54 56 56 55 57 57
26 27 26 25 26 31 33 28 27 28 29 31 33 28 26 27 26 25 26 27 30 31 31 32 34 36 38 41 45 47 47 46 46 49 52 52 53 55 54 52 53 55 63 63
27 25 27 30 31 37 31 30 30 34 33 33 34 31 26 26 27 26 27 28 31 33 34 35 37 39 42 45 47 47 47 47 50 52 53 54 51 51 53 54 56 60 57 59
26 27 31 34 34 36 33 27 26 27 29 30 28 27 27 26 26 27 29 31 33 33 35 37 40 43 46 47 47 46 47 50 51 53 53 49 49 51 52 56 55 69 62 72
29 29 31 34 35 29 23 28 28 27 31 27 25 25 25 26 27 29 31 32 33 35 37 40 44 47 49 49 49 49 50 52 54 54 51 48 50 54 58 59 61 65 65 65
29 30 33 34 35 32 25 26 30 30 22 23 24 25 27 29 29 29 30 32 34 37 40 43 46 48 48 47 49 51 53 55 55 53 49 50 54 57 61 62 63 64 65 67
30 31 31 30 30 26 20 25 23 20 20 21 22 23 26 27 27 29 32 34 37 41 44 45 46 46 47 48 50 52 54 54 51 48 50 54 57 60 62 62 62 64 66 68
31 28 26 26 22 20 17 14 14 13 14 17 20 22 23 25 27 30 34 38 40 42 44 46 47 49 49 50 52 53 52 50 49 51 54 57 60 62 62 63 65 67 70 73
30 28 26 24 18 16 13 13 14 15 17 19 21 24 26 28 32 34 37 40 42 44 46 48 49 49 51 53 54 54 53 53 53 55 58 61 63 63 65 66 69 73 76 78
30 28 26 24 19 20 18 18 19 20 22 24 26 29 31 34 36 38 40 42 45 47 49 50 50 51 53 55 55 55 55 55 57 60 63 65 65 66 68 72 75 78 79 78
32 29 28 26 25 25 25 26 27 29 30 32 34 36 38 41 43 45 46 47 49 51 52 52 53 54 55 56 55 55 57 59 62 65 67 67 68 71 74 76 78 79 77 75

GFSCGP_500_spd_024.txt.gz
Wind_Speed
1 5 3 10 13 12 14 17 19 15 14 17 15 11 6 8 11 4 1 5 8 9 8 7 8 8 8 8 8 6 5 4 4 4 5 7 7 7 7 10 12 16 19 23
3 4 7 11 12 14 15 14 15 15 11 17 15 11 9 8 8 4 4 10 6 7 11 10 9 8 8 7 8 8 10 8 7 8 9 8 9 10 12 15 18 20 24 28
8 10 10 11 11 11 11 17 18 17 12 12 7 4 5 6 10 7 5 2 5 6 8 9 10 9 7 5 5 8 10 11 11 12 13 12 13 15 17 21 23 25 29 33
9 9 11 11 11 12 19 22 20 16 12 8 7 7 6 8 10 10 11 9 9 10 9 8 7 9 10 7 8 10 11 13 13 15 17 16 17 18 22 25 28 33 36 38
14 13 15 13 12 15 17 17 19 17 15 14 12 10 6 9 9 12 11 9 16 16 13 10 9 10 10 13 12 13 14 14 14 13 14 17 19 20 26 30 34 38 40 42
18 17 14 13 14 17 24 20 17 16 14 17 12 7 6 6 8 6 12 15 14 18 18 19 19 17 16 17 17 15 14 12 11 13 14 16 21 25 29 33 37 41 43 43
21 18 16 21 21 19 23 20 19 19 21 20 16 17 11 10 11 10 11 12 13 16 16 22 23 22 20 17 15 14 15 13 14 22 16 19 24 29 33 37 37 40 41 44
24 17 16 21 27 25 22 21 22 23 22 22 22 23 16 14 17 16 12 14 13 11 11 15 19 22 19 19 16 14 14 17 18 23 21 25 28 33 36 37 38 39 45 47
25 20 19 20 25 28 24 25 21 19 20 21 23 23 21 15 14 15 17 15 15 15 16 12 12 15 15 15 13 15 17 18 21 24 26 29 34 35 37 37 39 48 52 55
25 26 24 22 27 29 28 25 21 20 24 24 24 23 17 16 17 12 15 21 20 18 14 12 11 11 10 11 14 17 21 23 27 30 31 32 36 37 38 39 43 48 53 57
28 30 27 25 25 25 28 28 24 22 24 26 25 21 20 19 21 19 18 19 19 18 18 16 16 14 15 16 17 22 26 27 29 31 32 34 36 37 38 42 44 52 56 59
23 33 31 28 27 29 26 28 24 25 26 26 28 18 14 15 18 20 19 20 22 22 21 20 19 19 21 21 24 28 31 31 31 32 35 36 36 39 40 43 49 55 61 65
22 29 35 30 30 30 30 29 22 29 27 26 27 18 16 19 20 22 24 23 20 20 21 22 19 21 23 27 29 32 33 31 32 35 36 39 40 41 43 50 52 59 61 62
26 27 29 31 25 28 29 27 28 32 30 23 20 20 19 21 23 25 26 23 22 17 18 20 22 24 27 30 33 34 33 34 35 37 39 38 40 45 48 50 55 58 60 61
27 27 25 24 21 28 29 28 30 32 30 27 19 25 21 22 21 24 25 23 21 20 21 24 25 27 30 33 34 33 33 36 37 37 39 39 43 44 49 53 56 59 58 56
28 26 25 23 23 28 30 29 26 26 28 27 26 25 22 21 21 22 23 24 23 24 25 27 29 31 32 33 32 33 37 39 42 45 45 43 46 49 52 56 59 56 56 57
27 29 30 25 24 26 30 24 24 26 27 28 29 25 27 27 26 26 26 28 27 26 27 30 32 33 33 32 34 37 40 43 46 47 46 46 48 51 55 58 53 55 58 58
30 27 29 32 30 33 22 23 25 29 29 33 32 31 31 31 28 25 26 28 29 30 30 30 31 31 32 35 38 41 44 47 48 48 49 50 52 55 56 55 54 54 55 55
35 31 32 31 28 29 25 22 28 32 29 30 30 30 28 27 26 25 26 27 29 29 30 31 32 33 35 38 41 44 46 47 48 49 50 52 54 56 55 52 51 53 53 51
34 31 29 27 29 28 26 28 29 28 30 27 28 29 27 25 25 27 28 28 30 31 30 32 34 36 39 42 44 45 46 48 49 51 52 54 55 54 52 51 53 56 58 61
34 31 28 30 30 30 30 27 29 34 22 26 26 28 27 27 28 28 29 29 29 29 31 33 35 38 41 42 44 45 48 50 51 53 54 54 53 52 52 54 57 61 64 66
34 34 34 31 31 31 29 27 27 25 27 26 26 26 26 26 26 25 24 25 27 29 31 34 37 40 42 44 46 48 50 51 52 53 53 52 52 53 55 57 61 65 67 69
34 32 30 30 29 29 27 22 22 20 20 19 18 19 19 18 19 22 24 27 30 33 36 37 40 42 45 47 49 51 52 52 52 53 52 52 52 54 58 61 66 69 71 71
30 33 31 29 27 26 23 18 16 16 15 14 14 16 18 20 23 26 29 32 35 38 39 41 43 46 48 50 52 53 53 54 55 55 53 53 56 59 62 66 71 72 72 74
28 31 31 31 27 24 22 21 19 17 16 17 19 21 24 26 29 32 34 37 40 41 42 44 47 49 51 53 55 55 56 57 55 53 54 56 58 62 67 71 72 73 76 79
30 29 32 29 27 29 27 24 23 23 23 24 26 27 30 33 36 39 41 44 45 46 47 49 51 53 54 56 56 57 58 56 54 54 56 60 64 69 71 72 74 77 80 82

GFSCGP_500_spd_027.txt.gz
Wind_Speed
9 6 5 5 12 13 12 13 16 13 9 10 8 5 4 4 9 6 3 8 9 10 9 11 12 12 11 11 12 12 12 11 10 10 11 13 12 13 13 10 10 13 16 18
10 12 7 5 8 9 10 10 12 19 15 13 12 11 10 7 5 5 2 7 7 9 9 10 11 12 11 10 11 12 14 12 10 10 14 14 14 13 12 14 15 17 21 23
10 11 5 3 6 3 7 13 14 15 10 10 14 12 11 8 5 1 5 2 5 6 10 12 12 10 8 6 5 7 9 10 10 10 11 15 15 15 14 16 18 21 25 29
9 7 7 7 6 10 11 12 16 16 11 12 14 11 10 11 10 7 6 5 5 9 10 10 11 12 10 8 6 8 11 14 14 16 16 17 16 16 18 19 23 26 30 31
12 12 12 12 11 12 12 13 18 18 15 10 6 4 7 15 14 11 12 12 11 13 14 14 14 14 13 15 13 11 11 16 17 17 18 19 20 21 23 22 26 29 32 35
15 15 15 14 14 15 14 19 20 18 16 14 12 10 8 11 13 11 16 17 18 18 21 20 21 21 19 19 17 17 16 17 17 16 18 20 24 24 24 25 27 30 32 35
15 14 19 18 20 20 23 23 22 20 20 20 17 15 13 8 11 12 12 13 20 20 23 22 25 25 25 23 21 21 20 18 18 17 22 25 29 24 25 25 30 31 35 34
16 18 20 21 22 24 23 21 21 23 22 21 19 18 12 11 16 16 18 14 17 18 17 17 24 29 30 29 28 25 21 19 19 20 22 22 24 28 28 29 30 33 35 36
17 20 20 20 24 27 24 24 22 21 17 17 19 18 19 17 19 13 11 20 20 17 15 17 24 27 26 27 28 25 22 18 20 20 22 25 28 30 29 30 33 36 37 38
18 21 24 21 25 30 28 26 24 21 21 23 21 20 17 15 13 16 16 14 23 21 19 16 16 18 17 16 18 20 19 21 22 24 27 27 30 30 30 33 34 37 38 41
21 24 27 26 26 26 30 30 26 24 26 24 21 21 15 16 17 18 22 21 20 21 22 20 18 17 17 18 19 21 21 23 25 29 31 30 31 33 34 36 40 38 38 45
21 24 28 30 30 28 31 30 30 32 27 28 27 22 16 15 13 16 20 24 23 23 23 22 20 20 23 21 24 25 26 27 29 30 32 34 34 37 40 42 40 42 43 49
20 23 26 32 34 35 32 30 31 27 22 27 33 27 13 17 17 18 20 24 22 22 23 26 30 27 25 24 26 26 28 30 32 35 36 36 38 40 41 42 44 46 50 53
22 22 25 25 28 28 31 27 27 29 30 31 29 26 17 18 20 20 23 23 20 19 21 23 23 23 25 26 27 28 31 34 36 37 37 37 39 39 40 41 41 47 51 54
24 22 21 21 25 33 31 30 31 33 32 33 29 27 18 20 21 23 24 24 21 20 21 22 23 25 26 28 30 31 33 35 36 36 37 37 38 39 40 42 46 49 53 56
27 22 22 23 24 27 27 29 31 29 27 31 28 25 20 23 23 23 22 23 22 20 23 25 26 27 28 29 30 32 34 33 33 34 36 39 42 44 46 48 50 53 55 57
31 25 25 24 23 25 29 25 26 24 24 25 28 25 26 26 25 25 25 25 24 24 25 26 28 29 30 30 31 31 31 32 34 36 39 42 45 47 50 51 53 55 55 54
32 29 27 28 27 31 19 19 21 21 22 25 26 29 29 29 29 28 29 28 27 26 26 28 29 30 30 31 30 30 32 34 37 40 42 45 47 50 51 52 53 54 53 50
29 28 31 30 28 24 21 20 19 25 19 26 25 27 29 28 27 26 27 27 27 26 25 25 26 28 28 29 30 32 35 37 40 42 44 47 50 52 53 53 55 56 54 54
31 30 30 35 33 26 16 20 22 23 20 20 26 27 29 29 28 26 27 28 25 23 23 25 27 27 27 29 32 35 38 41 43 45 47 50 52 53 54 55 56 55 54 55
31 30 30 31 31 21 20 19 21 25 24 25 27 28 27 27 27 26 25 24 22 23 24 24 25 27 30 33 36 38 41 43 45 48 50 52 54 55 56 57 56 55 55 58
34 29 28 26 29 27 21 23 24 25 24 25 24 23 23 23 22 22 20 20 20 20 22 25 28 31 34 37 39 41 43 45 47 50 52 54 55 56 57 56 55 56 58 60
31 28 26 27 28 30 27 24 23 23 23 22 21 20 16 14 13 13 15 18 20 22 25 28 32 36 38 40 42 44 46 47 49 52 54 56 57 57 56 55 56 59 61 65
34 31 32 29 27 25 27 25 24 21 21 19 16 14 13 13 14 16 19 22 24 27 30 34 37 40 42 43 45 46 48 50 52 55 58 59 60 59 58 58 60 65 69 73
37 35 29 27 27 27 28 26 26 23 22 20 18 17 18 19 20 22 25 28 31 34 37 40 42 44 45 46 48 50 52 54 56 59 60 61 60 60 60 64 67 71 76 78
38 36 31 26 24 30 28 30 26 24 25 25 25 24 25 26 28 30 32 35 38 41 43 45 47 48 48 49 52 55 56 57 59 61 61 61 60 61 63 67 72 77 79 80

GFSCGP_500_spd_033.txt.gz
Wind_Speed
17 11 10 7 10 14 18 19 10 15 5 9 6 10 5 18 8 6 5 3 1 3 3 5 5 7 6 6 6 5 4 4 5 6 7 8 10 11 13 15 15 12 13 15
20 13 10 4 9 13 19 18 12 15 18 12 4 8 8 17 8 7 7 2 1 1 3 5 6 5 5 5 5 5 4 3 5 6 7 9 11 13 15 15 14 17 18 17
18 16 12 7 2 8 13 11 19 19 11 15 14 14 18 17 9 10 7 7 4 3 5 7 8 9 8 7 6 5 5 5 6 8 9 9 11 12 14 16 17 18 18 19
18 17 13 10 5 4 8 10 17 24 19 12 8 13 15 15 13 11 9 7 6 6 7 6 7 7 8 9 8 8 8 9 9 9 11 11 12 14 17 18 20 20 23 25
18 18 15 13 10 9 13 13 19 12 12 14 11 11 13 11 18 18 13 11 8 8 9 9 10 11 11 12 13 13 13 13 13 13 14 15 15 17 18 22 24 25 28 29
26 22 18 14 17 15 16 13 17 11 8 14 12 11 15 11 5 13 13 16 12 11 11 13 16 16 16 18 18 18 18 19 18 18 17 18 18 17 16 18 22 28 32 35
25 22 18 19 18 17 17 15 10 13 14 13 14 19 12 8 12 21 15 16 19 17 15 17 17 16 16 17 21 22 23 22 22 22 24 22 20 19 19 23 23 29 29 32
26 28 21 15 20 16 17 17 17 18 19 10 19 20 13 14 21 20 19 19 20 22 21 19 18 20 20 20 22 23 24 26 27 21 29 27 23 22 24 27 29 33 36 40
27 25 22 24 20 24 21 22 16 20 25 23 9 12 21 14 18 18 21 23 24 26 27 24 21 20 21 23 24 25 27 26 26 27 33 30 23 26 27 30 35 36 39 40
25 25 28 30 24 25 27 22 24 28 21 26 19 16 14 16 12 18 18 20 23 26 25 26 23 24 23 24 26 26 28 28 28 27 27 24 26 27 31 35 37 40 38 34
33 33 28 34 27 23 23 27 26 22 23 22 17 13 21 20 16 17 20 23 23 24 26 23 28 30 26 26 26 26 25 26 25 24 24 22 24 30 35 37 40 41 42 40
38 37 37 34 28 23 21 20 22 29 24 26 27 23 14 21 22 23 21 23 23 23 27 27 26 28 30 30 31 29 27 27 27 27 28 28 31 34 38 38 42 44 43 42
38 44 42 31 27 30 30 30 26 29 25 34 27 27 19 26 22 23 27 25 25 22 22 23 25 27 29 30 30 31 30 30 31 31 32 34 35 38 39 41 43 43 44 44
42 46 41 39 28 23 23 31 31 33 34 32 32 22 18 14 22 21 24 28 24 25 23 23 25 27 29 32 33 34 35 36 37 36 36 36 37 39 40 42 43 43 44 45
48 48 43 38 33 26 25 25 30 30 31 29 26 23 22 25 27 27 26 32 26 25 25 23 24 25 27 25 30 34 34 34 34 34 35 37 38 40 42 42 42 43 43 45
48 46 42 39 38 31 29 29 28 28 29 33 31 32 26 22 32 31 28 30 28 29 27 24 24 26 27 28 28 30 30 30 30 34 35 37 38 39 39 41 42 44 45 48
52 47 45 43 35 34 37 34 29 28 30 29 30 26 27 24 28 29 30 27 29 30 31 28 28 27 29 31 30 31 31 32 34 35 36 37 37 38 39 41 44 46 49 52
54 47 45 41 38 42 25 24 22 24 26 28 27 26 24 26 31 28 28 30 31 32 34 33 33 32 32 33 33 36 35 35 35 35 36 36 37 39 42 44 47 50 53 55
53 46 47 44 42 34 29 25 20 22 26 26 25 24 25 29 26 28 33 33 33 35 35 36 37 36 34 34 34 34 33 33 35 35 35 37 39 41 44 47 50 52 54 56
54 49 47 43 40 37 25 19 17 24 29 28 25 27 30 32 26 28 26 29 30 30 32 33 32 32 31 31 30 31 32 32 32 34 36 39 42 45 48 50 51 53 56 58
46 48 48 43 39 31 25 19 22 27 2 22 25 28 30 29 28 27 28 27 28 29 29 30 30 29 29 29 30 29 29 30 33 36 39 43 46 48 50 52 54 58 60 62
47 48 44 41 37 34 22 20 23 22 28 31 27 28 29 29 26 27 27 26 27 28 28 28 28 28 28 27 26 28 30 33 36 40 43 46 49 50 52 54 57 60 61 60
39 45 42 42 40 27 27 21 20 24 33 33 31 32 31 28 27 25 25 25 25 25 24 24 24 23 24 26 28 31 34 38 42 45 48 50 52 53 55 57 60 60 60 61
41 39 44 42 36 33 27 23 25 25 31 36 35 34 29 27 26 25 24 23 23 22 22 22 24 26 28 31 34 38 41 45 49 52 53 54 55 56 58 60 61 60 61 62
46 48 42 42 36 38 33 24 27 32 32 35 39 35 29 28 27 27 26 26 26 26 26 28 30 32 34 37 41 44 48 51 53 55 55 56 57 59 60 60 61 63 63 64
44 46 46 46 39 35 29 29 32 31 30 30 32 32 33 31 30 29 29 31 30 31 33 35 36 39 42 44 46 49 52 53 55 56 57 57 58 60 59 61 65 67 68 71

GFSCGP_500_spd_036.txt.gz
Wind_Speed
17 16 13 14 10 6 13 15 11 21 18 14 6 23 20 21 12 11 8 9 7 5 2 5 6 7 8 5 4 3 3 2 2 5 5 5 4 2 1 1 4 9 11 10
21 13 13 13 8 6 19 20 12 19 22 23 10 16 26 23 23 11 13 11 9 5 2 1 2 0 1 0 1 2 3 4 2 2 4 5 4 5 6 6 11 13 10 13
24 16 12 13 11 8 11 22 18 20 20 17 13 8 24 26 19 16 12 11 10 8 3 1 1 2 2 2 1 1 2 4 5 5 5 5 5 6 7 7 10 13 15 15
25 19 16 14 12 11 8 11 21 19 27 15 14 17 18 13 22 14 18 14 12 9 7 3 2 2 3 3 4 5 7 7 8 10 10 9 8 9 10 10 12 13 15 17
22 22 21 16 14 14 8 18 20 17 18 19 17 8 10 14 19 18 10 10 7 8 7 5 4 6 8 8 9 9 10 11 11 12 13 12 12 12 13 14 16 16 19 21
27 26 25 16 17 17 15 14 18 21 17 24 14 16 17 16 17 20 20 19 3 7 9 8 8 11 8 10 13 13 14 15 14 14 14 14 15 13 12 13 15 16 18 24
31 32 27 22 22 20 22 19 13 13 13 13 10 19 12 19 22 21 15 31 11 9 11 11 12 10 11 12 13 12 13 14 15 15 16 21 15 18 16 16 16 18 22 24
35 33 30 22 22 16 21 20 16 21 22 19 27 21 15 19 19 13 14 21 24 19 17 18 18 18 16 17 14 13 14 16 17 17 18 17 19 27 24 19 20 27 20 26
36 36 26 28 22 24 24 21 12 20 28 29 18 9 15 20 23 23 21 22 20 22 26 26 23 26 25 22 19 16 17 19 20 20 21 21 22 24 40 30 21 27 26 29
35 34 32 23 24 26 28 21 21 23 30 32 21 16 14 22 20 23 21 20 23 25 22 25 26 27 26 24 25 21 20 23 23 24 23 24 20 21 28 14 23 27 31 34
36 40 30 27 35 27 26 30 30 22 29 30 23 17 25 30 15 21 21 21 20 19 21 19 23 22 24 29 27 29 38 21 28 27 29 27 26 29 30 28 29 33 34 35
41 42 40 38 31 34 34 27 28 35 28 33 34 26 22 25 25 25 22 23 24 18 18 19 21 26 28 27 30 33 33 28 30 30 33 31 28 28 33 30 33 36 36 39
39 47 47 42 32 30 33 28 33 24 26 32 31 23 25 25 30 24 27 25 31 31 28 24 19 23 26 28 31 33 34 33 33 33 34 32 30 35 32 36 37 38 39 43
40 47 46 47 43 31 32 27 31 32 34 32 34 25 28 37 23 31 21 20 25 26 25 25 23 21 26 27 30 33 34 35 36 36 38 38 36 37 36 38 39 40 43 45
49 48 48 47 40 38 29 29 28 36 30 29 32 31 27 23 26 23 21 25 25 32 28 26 30 24 25 27 29 30 31 34 36 36 37 35 35 35 36 38 41 43 44 44
49 47 44 47 45 46 43 33 29 33 33 34 29 32 26 18 24 33 36 40 21 32 29 28 30 29 28 28 27 24 26 31 33 35 34 34 36 39 39 39 40 40 40 43
47 49 44 56 49 43 47 44 32 31 29 27 33 28 27 33 34 34 36 41 37 31 30 30 32 32 31 30 29 29 30 31 32 31 32 35 35 36 37 38 39 40 42 45
45 50 45 45 45 52 51 43 42 43 41 40 36 30 32 34 32 30 33 36 29 27 27 30 33 36 34 33 34 34 33 34 33 36 36 36 37 37 38 38 41 43 46 48
49 48 53 56 50 49 47 38 41 39 31 29 31 31 33 29 26 35 33 33 30 30 33 35 35 35 37 38 38 37 36 35 35 37 37 36 37 36 37 40 43 45 49 52
45 49 51 55 55 53 48 37 31 31 34 28 30 28 30 29 36 34 27 29 29 33 32 32 32 32 33 34 34 34 35 35 36 36 36 36 35 37 40 42 45 49 52 54
47 50 49 52 53 53 43 34 29 31 11 25 25 27 27 31 40 33 29 30 31 31 31 31 31 32 32 33 34 33 34 34 35 35 34 35 36 39 43 47 50 53 55 56
40 50 48 50 52 51 43 37 37 27 19 26 27 25 34 36 36 34 31 32 31 31 31 29 29 30 31 32 32 30 30 31 32 33 35 38 41 45 49 52 54 55 56 58
40 36 41 47 48 47 41 33 28 21 27 31 34 30 35 36 33 31 33 35 34 32 30 27 27 27 28 28 28 27 29 31 34 37 41 44 47 50 53 55 56 57 58 59
41 31 41 42 40 36 40 36 36 31 31 30 33 38 38 42 34 32 35 35 33 31 30 27 27 27 27 28 28 31 34 37 40 43 47 50 54 56 57 57 58 58 59 58
40 16 32 52 47 46 47 32 31 35 32 34 34 36 39 42 38 37 37 35 34 33 31 30 30 30 32 33 35 38 40 43 46 49 52 56 58 59 60 61 59 59 61 64
36 41 36 51 35 24 36 37 40 36 35 33 35 33 35 36 38 39 38 36 37 37 36 35 36 36 38 40 42 45 47 50 52 54 57 60 60 62 61 62 60 64 68 71

GFSCGP_500_spd_039.txt.gz
Wind_Speed
22 16 9 8 7 10 12 9 11 12 16 23 23 14 15 15 17 18 9 11 10 12 7 9 8 10 10 11 9 8 8 8 7 11 10 9 12 9 9 11 11 12 12 11
23 12 15 12 9 10 10 10 11 10 15 19 17 18 16 16 9 14 11 13 13 9 7 3 3 4 4 6 6 6 7 8 9 5 6 7 8 5 2 3 3 6 7 7
24 14 21 16 12 10 10 10 12 16 20 17 9 14 16 17 16 8 12 10 10 7 4 4 3 3 5 5 6 8 10 10 9 8 7 6 3 2 1 4 4 7 6 8
27 21 22 20 16 12 11 12 14 29 23 26 15 19 16 22 15 10 8 11 2 3 3 3 2 2 3 3 3 4 5 5 3 3 4 4 4 3 4 6 6 7 7 8
21 22 24 21 16 16 10 17 15 19 31 31 24 18 11 18 14 15 13 10 8 3 3 5 3 2 3 1 2 3 1 2 2 3 3 3 4 5 7 10 11 11 10 12
31 28 27 22 19 19 19 20 17 20 22 28 21 24 12 15 17 17 18 18 9 8 5 2 2 2 3 4 5 6 6 6 7 7 7 7 9 8 9 10 13 16 14 12
32 29 27 28 24 24 24 24 22 21 22 17 17 27 14 13 20 23 26 24 13 2 8 5 3 4 5 9 10 10 10 11 8 9 10 11 13 12 12 14 14 17 22 17
36 34 30 26 26 21 25 24 25 18 17 12 21 20 16 13 16 24 21 16 17 15 14 12 8 10 12 13 14 14 14 13 13 11 12 15 16 16 17 17 19 23 30 25
37 36 26 29 27 26 24 28 15 18 24 26 24 23 27 21 16 22 21 23 20 19 19 18 13 12 12 18 20 17 19 20 19 16 12 14 20 22 17 19 17 22 29 27
36 37 31 31 29 29 26 23 26 26 28 28 28 22 18 21 17 25 21 26 28 23 19 19 21 17 14 15 17 16 21 20 26 22 19 18 18 21 22 22 18 20 21 25
36 36 34 34 37 34 31 32 32 33 33 30 30 24 21 21 21 22 26 30 21 20 19 20 20 24 25 23 20 20 27 33 26 17 26 27 26 27 26 25 38 30 22 24
31 36 41 40 36 40 33 32 33 38 30 30 33 30 28 21 22 29 30 25 23 18 16 18 21 19 22 26 26 27 29 26 23 27 28 26 31 39 36 22 26 30 27 25
33 40 45 45 42 41 40 35 36 32 34 39 33 31 29 29 31 24 30 27 25 25 26 24 22 22 21 23 26 28 27 27 29 30 25 20 26 25 27 33 30 32 37 36
38 40 46 43 41 40 42 39 37 36 38 33 36 31 28 31 32 32 28 28 34 24 28 24 15 18 19 22 25 28 26 27 29 28 29 32 36 36 35 34 33 35 37 35
43 41 44 47 47 43 46 40 37 37 32 37 29 32 29 24 35 29 30 30 31 35 21 25 21 22 22 23 23 26 28 30 31 32 32 34 33 35 36 35 37 38 36 38
48 47 47 50 50 47 52 49 38 36 31 32 30 37 33 30 28 37 31 31 32 40 39 36 30 31 25 23 24 25 28 30 31 31 31 31 33 35 36 36 37 37 38 40
56 52 50 52 51 50 55 50 54 41 34 32 35 30 32 26 23 26 33 30 37 35 37 33 35 35 29 26 26 29 30 30 30 31 33 33 33 32 34 37 38 38 38 38
42 57 58 51 53 56 41 48 52 52 38 38 31 34 34 27 31 31 44 29 38 37 25 20 30 32 30 30 30 32 34 33 33 33 33 34 34 34 35 35 35 36 35 36
27 40 58 58 56 50 48 47 44 48 49 44 44 38 33 31 36 37 37 42 46 40 29 27 28 31 32 33 34 33 30 32 32 34 35 35 36 36 36 36 35 35 37 39
30 27 50 47 48 53 46 48 41 44 49 46 46 38 44 42 43 45 42 39 36 34 30 31 30 32 33 33 32 33 31 32 34 35 36 37 37 37 37 36 36 38 41 45
51 47 39 47 45 40 44 39 37 45 43 36 37 39 40 35 39 43 41 39 37 32 31 32 34 36 35 33 32 31 32 32 33 35 36 37 37 37 36 37 40 43 47 51
44 51 30 43 50 47 45 38 47 38 31 27 29 31 37 37 42 41 39 34 35 35 35 34 36 37 36 35 34 31 31 31 33 35 35 36 36 37 39 42 46 49 53 57
39 44 47 27 49 41 41 38 35 40 37 34 38 32 36 36 36 38 37 42 39 35 35 37 37 39 39 37 34 32 32 33 34 34 34 35 38 40 44 48 51 55 58 60
38 44 46 30 42 44 47 42 39 39 42 39 32 37 34 33 37 37 42 39 36 38 39 39 38 38 38 37 36 35 35 35 36 36 37 40 43 46 49 53 56 59 61 62
38 42 41 25 27 41 43 38 44 43 43 49 45 44 44 47 39 43 38 41 42 43 42 40 38 38 39 38 37 37 37 39 40 40 43 47 50 53 54 57 60 63 64 65
36 35 41 41 25 39 44 43 35 34 50 49 45 41 42 43 42 37 36 41 41 43 45 44 41 39 39 40 40 41 42 44 45 47 51 54 56 58 59 63 64 63 65 65

GFSCGP_500_spd_042.txt.gz
Wind_Speed
23 18 13 19 14 17 14 12 15 14 9 15 11 13 19 13 6 8 6 5 3 5 5 6 5 8 10 11 13 13 13 12 12 13 13 11 9 8 9 9 8 11 16 15
26 12 20 22 18 17 15 15 14 13 12 19 20 13 17 18 0 3 3 6 1 4 2 3 4 5 6 7 8 10 11 10 9 11 11 11 8 7 10 11 10 13 12 16
28 15 26 21 21 18 17 15 14 13 16 22 24 13 12 16 5 7 3 8 2 4 3 2 3 7 9 10 11 10 11 13 12 11 12 11 8 7 8 6 8 7 13 17
34 26 28 22 21 20 19 20 16 18 21 26 24 25 16 16 11 6 6 6 5 1 3 4 2 5 9 9 10 9 9 10 9 9 8 8 8 7 6 3 3 6 8 13
27 25 28 27 18 24 18 25 19 17 23 24 23 29 15 21 16 8 9 8 7 1 2 2 4 3 1 2 4 5 5 4 4 4 4 5 6 4 3 3 5 8 10 12
34 31 34 29 25 25 23 24 23 22 24 22 16 26 17 22 19 12 6 4 6 3 9 4 2 3 1 1 3 2 2 2 3 4 4 3 4 5 8 9 8 10 10 12
32 33 32 32 30 28 25 27 25 26 27 19 17 24 13 23 25 18 11 10 9 7 6 5 5 5 4 4 5 6 8 8 9 9 8 8 9 10 13 11 11 12 13 14
36 35 32 29 29 26 28 27 28 28 25 20 24 25 15 21 24 22 14 10 7 10 7 11 9 11 12 11 6 8 11 14 13 13 13 12 13 14 16 17 18 16 20 25
37 37 29 30 27 27 27 33 25 30 29 28 27 25 17 22 22 23 22 9 14 14 10 7 10 12 14 10 12 14 15 18 18 16 19 20 21 16 18 20 20 22 23 16
35 36 31 32 33 34 35 27 31 36 34 31 27 24 23 24 19 28 26 17 13 10 11 12 12 11 10 11 13 17 17 18 17 19 20 25 25 24 22 23 26 27 29 24
41 41 34 36 40 36 38 36 35 36 39 35 29 21 21 25 18 20 27 26 16 20 14 14 15 14 13 14 14 15 19 21 24 23 26 26 31 32 35 34 36 36 35 33
51 47 46 37 36 38 39 38 36 40 39 36 32 25 23 26 25 24 28 24 19 25 15 20 19 21 19 18 17 16 17 20 24 27 31 30 32 34 36 38 44 29 47 40
49 45 48 42 41 43 45 43 42 40 39 40 38 32 23 26 24 27 26 22 26 22 19 22 26 28 23 24 23 20 20 19 21 26 30 28 33 35 28 27 26 24 23 20
45 45 47 49 43 42 46 47 41 42 43 39 40 31 26 31 28 27 29 35 37 32 26 22 18 25 21 23 22 21 20 20 22 23 26 28 29 27 26 30 28 25 31 29
45 46 50 50 49 50 47 46 42 42 45 45 37 37 27 28 28 34 29 32 35 35 34 28 16 18 21 21 23 26 28 27 27 25 28 28 27 28 29 29 28 30 32 34
50 45 45 52 52 50 55 52 49 45 46 45 44 42 31 28 30 33 36 33 37 37 32 24 20 31 29 29 30 24 28 30 32 31 31 29 28 28 29 28 30 31 34 37
56 48 54 49 52 50 58 50 53 49 47 47 47 38 28 30 39 40 37 39 41 37 31 33 35 30 27 20 22 24 27 29 30 32 31 31 30 31 30 30 32 34 36 35
59 60 59 42 56 60 52 52 52 51 52 52 45 41 35 34 31 39 37 37 35 35 41 34 35 26 21 24 25 28 31 32 33 33 34 34 33 34 35 35 37 37 36 34
49 54 62 37 47 54 56 49 47 52 51 52 49 43 41 39 40 38 37 40 45 35 38 43 36 27 25 27 29 29 31 32 32 32 32 35 36 36 38 40 40 38 37 38
47 50 56 41 28 15 51 50 45 48 50 47 44 49 41 40 42 35 36 38 38 35 36 37 36 33 30 30 28 30 31 32 32 33 33 34 36 38 41 41 40 40 40 41
43 42 51 60 50 28 32 50 49 51 44 40 41 51 51 52 50 45 42 43 46 48 46 41 35 35 35 34 31 31 33 33 34 35 36 37 38 40 41 42 41 42 43 44
39 36 49 60 50 24 20 31 48 49 49 43 41 37 47 52 54 52 43 38 42 45 44 43 38 37 37 37 35 35 35 35 37 37 38 39 40 41 42 42 43 45 46 48
37 29 31 48 33 26 29 39 43 40 42 41 40 45 45 47 42 34 37 44 44 45 44 43 39 40 40 41 38 37 37 38 39 40 39 40 41 42 42 43 45 47 50 52
35 37 34 35 27 34 25 43 45 43 42 35 39 41 37 38 41 41 36 34 39 41 41 38 42 41 39 39 39 40 40 40 40 41 41 41 42 42 44 47 49 52 54 57
35 40 33 30 28 39 28 26 37 38 36 36 32 34 41 45 43 41 35 37 43 44 39 41 42 42 41 42 43 43 44 42 42 42 43 43 44 47 49 52 54 57 60 63
35 39 34 32 27 35 23 17 28 44 46 44 39 40 34 47 33 42 43 36 38 43 46 45 46 45 42 44 47 47 45 44 44 45 46 48 51 53 56 58 60 63 65 68

GFSCGP_500_spd_045.txt.gz
Wind_Speed
25 23 13 18 21 22 19 21 18 18 23 23 17 6 10 8 8 8 8 3 3 0 1 3 4 2 4 9 13 12 13 13 19 19 18 17 16 14 10 11 15 12 15 19
30 16 16 27 23 22 17 19 19 18 25 27 17 11 13 13 8 11 8 6 0 5 3 4 3 4 3 4 7 10 8 10 12 13 15 15 15 15 14 12 11 14 16 18
31 23 26 32 27 24 18 17 19 23 25 28 22 14 15 8 5 8 9 7 4 4 6 6 5 4 4 5 5 7 8 8 11 13 12 11 8 10 11 11 9 14 14 17
39 30 32 33 26 24 21 19 23 25 28 29 26 20 16 14 6 6 10 2 4 4 6 7 7 7 6 6 5 7 8 6 7 8 11 13 14 14 12 12 13 15 16 16
35 29 31 36 23 30 20 29 24 27 30 29 27 24 15 17 14 9 9 11 6 4 2 5 8 8 9 7 7 6 5 6 6 5 6 9 10 12 12 10 10 10 12 11
39 34 38 35 32 35 26 31 29 30 31 29 23 22 18 15 15 12 9 11 7 8 8 5 7 6 5 6 5 5 6 7 8 7 8 10 11 11 12 11 11 9 10 9
35 37 38 39 37 34 31 31 32 33 31 25 23 25 20 17 16 15 13 15 14 15 14 11 9 8 7 7 7 6 7 9 10 8 7 8 8 9 9 13 13 9 10 15
35 35 34 35 35 30 31 31 37 33 31 27 27 30 21 19 20 15 15 12 14 17 11 9 12 12 8 8 10 10 9 9 9 9 11 12 13 13 12 13 17 17 15 17
41 40 35 34 36 36 35 39 31 37 37 33 29 29 24 19 21 21 16 18 12 19 17 10 11 14 14 12 11 15 12 11 10 13 17 18 18 18 18 18 19 21 21 23
44 43 40 36 38 40 40 34 36 40 40 33 28 28 23 20 24 23 19 21 14 14 16 19 15 13 13 14 14 14 14 10 13 15 15 18 23 21 25 28 25 23 25 27
46 45 40 38 44 42 40 39 39 39 41 37 29 26 20 20 25 28 27 20 20 16 15 15 19 13 12 14 16 16 18 17 16 18 21 26 31 30 31 29 37 29 34 37
51 49 47 42 42 41 43 44 42 45 44 41 36 29 21 21 24 27 28 23 21 21 19 17 20 20 16 15 17 18 18 19 20 23 26 30 32 34 35 40 38 39 37 37
55 55 53 49 44 46 47 47 46 45 46 44 42 31 22 29 29 29 31 29 28 22 18 17 20 22 21 23 22 23 23 24 25 25 25 25 26 30 31 22 20 24 26 25
55 55 56 58 53 50 53 51 50 48 47 47 44 35 24 31 30 31 30 28 26 24 28 30 28 20 25 21 20 20 21 24 26 25 24 26 27 26 29 27 23 22 23 25
47 49 57 58 58 53 54 55 52 51 49 50 44 41 30 30 33 29 34 36 35 35 31 25 25 26 29 30 20 18 19 23 26 29 28 29 29 30 30 27 26 24 26 28
45 51 51 60 56 53 53 54 54 53 53 49 49 47 40 34 31 33 34 36 36 35 30 26 26 28 23 24 28 29 30 27 31 31 30 32 32 32 32 29 28 27 29 29
52 55 50 46 47 51 54 46 55 56 55 53 51 49 43 39 37 38 38 39 37 31 32 33 31 31 27 28 34 33 25 25 25 28 30 33 33 33 32 32 32 31 34 34
45 53 59 55 53 57 51 45 52 53 57 57 55 51 47 43 40 36 36 38 38 39 37 36 32 32 33 31 30 31 33 29 27 30 34 36 35 36 36 37 38 37 36 36
37 42 45 44 54 72 47 37 38 54 54 55 58 56 54 43 40 39 41 39 31 34 36 34 37 37 32 36 35 34 37 30 29 29 31 33 33 34 35 36 38 39 40 42
38 38 40 41 42 53 50 45 40 50 57 46 53 55 54 52 49 42 39 41 39 36 34 31 33 35 36 36 34 35 39 34 31 30 30 32 33 35 37 38 39 41 42 44
40 39 39 38 43 43 53 47 34 39 48 47 45 50 49 48 48 44 41 47 43 33 34 37 38 40 40 41 37 34 39 36 36 34 34 35 36 37 38 39 42 43 44 46
43 42 39 38 36 39 48 46 34 34 44 50 49 46 41 40 41 43 45 46 45 43 42 43 44 40 42 41 38 37 40 41 40 39 39 40 40 40 42 43 44 45 47 48
47 43 41 35 33 26 30 48 41 25 35 37 50 50 45 39 39 44 46 51 52 48 43 47 47 41 39 39 38 41 40 43 44 42 42 41 42 42 43 45 47 48 50 51
48 47 41 36 29 30 28 39 50 37 26 35 30 32 39 36 40 45 42 41 43 39 38 36 40 41 43 43 44 39 41 43 45 44 44 42 44 46 46 47 48 50 51 53
47 47 42 39 29 32 28 23 34 39 26 33 28 29 30 32 37 40 41 41 43 43 42 39 40 43 42 37 40 41 42 46 47 49 50 49 50 51 51 51 51 53 55 58
45 44 41 39 32 30 23 21 23 26 27 31 32 35 31 32 30 38 43 40 41 44 43 45 45 45 38 39 39 42 43 44 45 48 49 49 50 52 54 55 56 58 60 63

GFSCGP_500_spd_051.txt.gz
Wind_Speed
35 35 28 21 21 27 27 23 19 18 20 20 17 12 16 10 13 19 19 13 11 10 12 10 7 7 5 7 8 9 18 16 20 11 11 10 13 15 20 27 26 25 23 24
41 33 27 28 28 29 25 23 19 23 22 24 18 16 15 12 11 17 21 16 10 11 10 9 10 8 6 3 4 1 4 16 21 17 20 18 16 18 19 27 23 26 27 27
41 30 34 32 29 28 27 23 24 24 26 26 23 16 11 14 11 14 15 13 9 10 9 9 10 8 7 4 1 4 2 1 9 18 23 23 23 24 24 28 26 27 32 28
43 38 37 36 33 32 28 24 26 26 30 27 27 19 9 14 15 12 15 14 11 8 8 9 8 6 5 3 1 2 2 2 2 6 8 9 9 11 20 23 20 21 24 24
39 35 37 39 31 33 26 28 28 30 32 28 27 26 10 9 12 12 20 15 16 11 7 10 8 5 3 3 3 2 2 3 4 6 7 8 9 11 14 14 13 15 14 14
43 40 41 39 34 34 32 33 34 35 32 30 25 29 12 11 8 13 16 20 20 20 11 10 10 8 6 7 7 8 7 6 7 8 10 9 9 11 13 16 17 17 16 17
40 41 41 39 39 40 37 34 36 39 35 28 29 32 18 15 11 12 13 20 21 21 12 9 11 13 10 9 8 8 8 8 7 8 9 9 10 11 11 11 13 13 15 17
31 33 38 38 38 35 35 35 36 37 33 32 31 36 23 17 12 12 11 18 22 20 14 10 10 15 16 13 10 10 10 11 12 13 12 12 12 12 12 10 11 13 14 16
34 33 32 34 35 38 38 40 32 36 37 38 34 34 26 20 16 13 14 17 24 20 18 17 12 15 13 15 15 15 14 14 15 14 15 17 17 16 16 13 14 16 18 20
40 38 37 35 38 40 39 35 37 39 39 37 37 34 27 22 19 16 16 15 23 23 20 18 17 17 17 18 20 21 20 17 16 14 14 14 16 17 17 18 19 20 21 24
43 41 39 41 38 37 37 38 39 38 39 40 39 37 32 23 21 16 14 15 22 23 20 20 20 22 17 16 18 20 21 18 18 19 19 20 20 20 21 22 24 25 28 32
41 43 43 41 39 38 40 41 41 42 41 42 42 41 36 26 23 22 14 19 23 24 24 20 25 23 18 16 20 25 22 20 19 19 20 22 23 26 25 26 28 28 26 26
45 48 47 45 42 41 43 43 43 45 45 43 44 46 41 34 26 28 24 19 21 24 27 23 26 25 25 24 22 24 24 25 26 25 25 28 28 30 30 29 31 31 29 29
45 44 45 43 44 46 47 47 48 49 49 49 48 49 47 42 32 34 30 26 26 26 26 30 29 29 29 25 22 25 30 29 26 24 25 28 27 26 27 29 31 34 33 32
47 47 45 42 40 40 44 45 46 47 48 50 49 49 50 48 39 37 35 32 29 29 31 27 31 31 30 31 29 28 31 34 34 31 26 27 26 26 29 32 34 36 36 34
50 49 48 45 42 43 43 42 44 44 47 49 49 49 50 49 50 39 38 36 35 34 30 30 28 32 36 35 35 36 37 37 36 32 27 31 34 34 36 35 37 34 34 35
49 46 45 44 40 40 46 42 43 43 44 48 52 53 54 54 52 50 41 43 40 37 34 33 30 29 31 35 40 35 33 35 37 37 32 33 35 39 37 34 35 33 33 35
45 44 45 46 44 44 43 35 32 42 44 50 56 57 57 59 58 56 51 43 42 43 41 34 32 31 29 28 33 34 32 34 36 38 37 36 39 36 34 35 36 35 33 33
34 45 51 44 43 42 38 35 35 35 38 43 47 53 60 61 62 63 58 51 46 47 45 38 32 32 30 29 35 35 35 32 30 34 35 36 39 40 36 36 35 34 35 34
19 18 23 28 26 15 15 23 25 23 29 34 44 50 54 56 63 62 57 52 46 43 43 45 38 36 32 30 30 32 35 35 30 31 33 37 42 42 36 36 37 36 35 36
20 20 19 20 19 13 19 22 23 22 23 26 28 35 44 49 53 59 56 48 45 39 39 46 47 40 38 37 37 35 31 32 36 33 36 37 39 42 40 39 37 38 37 39
26 25 24 23 18 17 21 25 26 25 24 26 26 27 32 38 45 53 57 50 43 36 37 40 46 47 43 39 41 41 39 37 36 36 37 39 41 39 37 38 42 42 41 42
29 28 28 26 24 25 29 33 33 32 28 30 31 31 31 33 36 43 54 52 44 36 38 37 44 50 49 46 46 44 47 41 38 44 46 47 47 43 42 44 46 45 46 47
32 34 33 32 30 32 35 38 37 35 33 34 37 38 36 34 35 40 46 48 41 40 38 38 41 43 38 39 42 46 45 46 48 52 47 44 45 44 48 47 46 47 47 49
32 33 34 34 36 37 39 42 40 40 38 37 38 37 32 26 31 31 33 40 41 41 41 42 36 34 34 35 35 36 39 41 40 40 45 49 49 50 50 53 54 52 49 50
37 37 38 39 39 41 42 44 44 45 43 41 38 41 40 31 26 32 31 39 33 46 45 42 41 39 37 37 39 39 38 37 38 42 46 47 52 53 53 51 50 51 51 50

GFSCGP_500_spd_054.txt.gz
Wind_Speed
37 37 32 23 26 25 24 23 23 26 25 21 17 13 14 9 12 13 13 11 14 18 16 13 12 13 12 13 10 8 10 23 10 10 9 10 13 20 29 25 31 24 19 19
42 40 27 33 31 29 28 27 24 25 25 23 21 13 12 13 14 13 11 14 13 18 18 13 11 10 11 11 10 7 7 7 9 10 17 10 7 9 11 19 23 22 20 19
44 35 32 36 33 31 27 26 26 24 26 27 22 17 10 14 11 10 12 11 12 16 16 13 10 10 8 7 10 5 6 8 7 17 16 17 14 14 10 15 19 21 18 19
51 41 39 40 36 31 29 27 30 29 29 25 25 17 7 12 13 13 13 12 12 15 15 11 8 9 6 5 5 5 3 4 4 2 8 15 15 14 16 17 19 21 20 21
39 42 40 39 32 34 27 34 32 33 31 30 25 24 11 10 12 16 15 14 15 14 15 12 7 9 7 5 3 5 5 2 3 2 4 5 6 8 8 18 24 21 24 22
44 43 42 43 36 37 37 36 36 34 35 32 25 26 14 8 11 15 14 15 19 17 17 16 11 8 8 7 4 6 8 7 4 3 6 5 5 8 10 11 14 16 17 16
39 41 43 43 41 38 40 38 36 36 41 33 32 29 15 12 12 13 17 15 15 20 16 15 15 9 9 10 8 7 5 5 6 7 6 8 9 10 10 10 11 13 13 16
36 38 42 43 41 37 34 33 37 40 41 33 35 36 17 16 14 14 14 16 14 18 18 14 18 13 11 10 11 11 10 8 6 6 8 10 10 10 12 13 13 14 16 16
33 36 39 43 41 41 40 42 38 40 41 39 38 37 25 19 16 15 16 15 16 17 20 17 20 15 15 12 12 11 12 11 12 12 13 12 13 15 15 14 15 15 16 17
32 35 32 29 33 37 40 42 42 44 44 42 39 36 31 18 19 17 15 16 17 19 22 22 22 19 17 15 13 13 15 18 16 14 15 14 13 13 16 18 20 20 19 19
34 31 34 31 33 31 33 37 39 43 43 41 33 28 32 26 22 22 18 20 20 22 25 27 23 21 19 22 19 19 18 17 18 18 17 18 19 19 18 17 17 20 20 22
31 38 33 35 35 33 32 34 34 38 42 40 39 32 37 29 24 24 19 17 20 22 25 29 28 26 23 25 24 21 22 23 23 23 19 19 18 18 21 22 21 22 24 25
31 34 38 41 39 38 38 37 36 37 36 39 38 38 39 33 29 25 22 21 23 25 27 31 31 26 28 28 27 24 23 24 25 25 24 24 23 23 24 27 28 29 28 27
34 34 35 38 42 42 40 40 40 38 38 38 40 41 39 36 33 30 30 25 25 27 27 32 36 34 32 34 33 32 31 29 28 29 28 27 26 24 27 30 31 29 27 27
33 38 38 37 38 39 40 40 41 40 40 42 42 45 43 43 40 34 35 34 31 29 29 32 32 35 34 31 33 34 34 33 32 32 31 31 33 32 29 29 28 28 29 31
43 37 31 35 35 32 36 39 42 44 43 44 43 45 44 45 44 42 36 37 37 33 30 30 32 37 37 38 38 38 38 37 35 35 37 36 36 36 33 32 34 35 36 37
43 42 41 39 37 37 39 35 34 35 36 38 41 45 49 48 49 46 44 39 37 37 36 33 30 36 37 39 39 42 42 42 44 43 44 41 39 37 37 39 39 37 37 37
46 37 38 37 32 42 42 35 36 35 35 40 45 47 49 51 51 50 47 48 45 39 38 39 38 37 35 39 43 41 43 45 47 48 48 41 40 39 40 42 40 41 41 40
48 45 44 42 44 44 41 37 32 34 35 37 42 45 46 50 52 50 51 54 50 50 46 43 43 41 39 35 41 45 45 46 47 47 46 46 43 41 45 42 41 43 44 45
36 37 37 38 41 41 39 31 28 31 34 41 39 40 43 45 48 51 50 54 53 50 47 45 44 43 43 38 39 42 48 45 44 46 47 47 42 41 43 44 43 42 43 43
26 25 21 19 20 22 21 24 23 22 23 22 23 27 32 37 44 47 45 49 55 52 47 45 37 39 43 45 42 41 44 42 42 46 46 46 46 44 45 47 48 44 41 42
24 21 19 17 17 16 17 19 21 19 18 18 18 19 20 23 29 37 40 39 43 50 51 44 41 40 41 45 41 45 45 44 44 44 45 49 51 49 47 50 50 56 59 45
24 20 18 19 19 23 23 22 21 21 21 23 24 24 24 23 25 31 35 39 43 44 50 50 45 42 46 46 44 47 49 48 46 48 47 48 48 50 51 53 57 56 60 54
23 23 21 21 23 24 26 25 26 28 29 29 28 28 30 29 31 32 34 36 39 41 46 51 44 43 46 48 48 50 53 52 49 51 50 48 53 54 56 57 55 50 50 54
22 22 23 24 26 27 28 29 30 33 34 36 36 35 35 36 36 34 36 37 33 38 42 42 42 41 43 45 44 47 55 53 48 47 51 53 57 60 58 53 55 58 57 59
24 24 25 26 27 29 31 33 35 37 39 40 41 42 42 42 41 42 42 45 39 40 23 35 37 40 45 44 45 50 50 46 45 46 47 52 55 56 53 52 52 55 55 57

GFSCGP_500_spd_057.txt.gz
Wind_Speed
48 44 42 37 30 27 29 20 20 20 22 27 21 20 21 17 16 13 13 11 14 15 19 15 17 16 16 13 12 8 10 8 19 15 9 4 25 27 25 26 27 30 32 34
54 50 42 36 34 35 30 24 26 25 30 23 22 21 20 18 17 14 13 11 13 12 16 14 14 14 15 13 11 8 7 10 9 10 6 8 7 16 22 26 29 24 20 15
47 47 41 38 39 38 32 28 28 29 26 24 25 24 19 17 19 12 13 12 13 12 11 11 13 12 13 13 10 8 7 7 9 7 10 9 8 5 5 17 17 22 21 16
45 45 43 41 42 36 33 28 30 33 29 26 23 23 19 14 17 14 17 13 12 12 11 11 12 13 10 12 8 5 5 5 5 4 1 8 16 8 10 7 12 11 15 17
43 48 47 45 46 34 29 35 37 37 31 29 27 24 19 15 17 17 18 17 13 12 13 12 10 12 11 8 9 5 5 5 4 4 3 3 4 6 9 10 15 15 18 21
46 46 50 49 42 41 33 39 40 36 31 35 26 28 19 13 14 19 17 17 16 11 13 14 13 13 11 8 7 7 5 5 5 4 3 2 3 3 5 5 5 15 18 18
41 47 46 46 47 44 39 41 39 34 35 34 27 31 22 16 19 20 18 17 18 12 13 15 15 17 13 12 9 7 6 4 2 2 3 4 6 6 5 5 5 7 9 10
36 41 47 43 43 47 43 37 37 35 30 28 31 29 24 24 21 21 20 19 20 13 13 15 16 18 15 14 13 10 6 6 5 3 4 5 6 6 7 8 9 10 11 12
33 36 29 38 39 46 40 44 35 32 24 25 25 27 22 23 21 21 21 19 20 19 15 15 17 19 17 14 15 13 8 7 8 8 10 8 9 11 11 10 11 12 14 15
24 34 33 38 36 40 43 33 38 42 39 32 25 16 8 20 25 29 23 19 19 20 21 17 20 21 21 18 16 16 14 12 13 13 13 11 12 10 9 10 13 15 18 19
20 26 27 35 39 35 39 41 44 36 40 29 27 21 23 28 30 26 24 23 27 25 24 22 21 23 25 24 21 20 18 19 19 18 17 16 16 16 15 14 14 15 16 18
23 28 26 23 26 32 32 37 37 40 27 31 28 24 29 26 26 24 24 17 21 25 24 24 23 25 25 25 23 24 25 22 22 22 20 20 19 19 17 17 17 18 19 20
27 24 23 18 28 30 30 28 28 34 34 29 26 34 20 20 24 24 23 20 21 25 27 23 25 26 29 30 28 29 29 29 27 26 25 23 22 21 21 22 24 25 25 25
32 25 23 27 20 20 25 30 29 30 32 31 28 19 24 32 32 28 26 29 25 24 29 27 27 28 30 33 33 33 32 33 32 30 28 28 27 25 26 29 29 28 29 29
33 31 26 29 35 35 28 32 30 31 30 29 26 29 35 36 33 31 34 29 31 29 31 36 33 32 33 33 35 37 37 37 40 38 35 32 33 33 32 32 32 33 33 29
34 31 35 34 31 30 33 34 35 34 34 32 36 39 37 37 41 38 33 35 36 35 34 35 37 37 37 37 34 35 37 36 39 41 38 36 37 38 36 36 35 35 37 35
37 32 35 30 27 30 35 31 32 32 34 35 36 29 39 44 42 39 38 37 36 34 33 34 37 39 41 41 42 41 39 42 43 44 43 41 42 42 41 40 41 40 40 40
50 40 33 30 30 28 26 33 29 29 28 29 33 36 39 41 41 36 39 42 40 38 35 33 33 36 39 39 40 42 42 44 44 45 46 47 47 48 46 45 43 42 44 44
50 50 51 47 47 39 40 40 32 31 28 35 35 44 42 44 39 37 49 40 41 42 41 38 36 36 39 40 40 43 46 43 45 46 48 47 50 50 51 48 46 46 47 44
51 49 48 38 39 41 39 40 32 32 30 42 41 40 39 40 37 39 38 40 42 42 42 42 42 41 38 40 42 45 46 46 47 47 50 53 55 54 54 48 48 52 49 46
37 40 44 46 43 41 43 46 36 35 34 41 34 36 35 32 34 33 32 35 41 43 46 50 46 48 46 39 38 40 44 46 48 50 53 55 57 59 55 53 54 52 49 50
23 26 27 29 26 32 24 24 26 32 39 34 25 22 22 23 24 26 25 29 33 39 42 43 47 45 45 45 41 42 47 48 50 52 52 52 56 55 54 57 57 52 56 63
21 21 23 24 23 18 19 21 19 23 25 24 23 23 23 25 26 28 28 29 31 37 40 42 46 49 49 48 47 44 49 52 54 56 55 55 54 56 58 58 57 60 61 60
17 14 22 21 19 15 23 20 19 21 22 25 27 27 27 27 28 29 31 31 35 38 39 40 44 47 51 51 50 51 51 55 57 59 58 59 60 58 63 61 61 61 62 65
27 26 26 26 24 27 24 25 23 25 26 27 28 30 30 31 33 34 35 37 39 39 39 42 45 43 46 50 51 48 49 53 59 58 59 65 64 64 64 68 66 67 66 67
24 25 23 24 24 25 26 24 23 27 28 30 32 34 37 37 40 41 41 43 44 43 44 44 44 49 49 42 44 45 44 46 49 59 54 58 69 71 61 65 64 64 68 70

GFSCGP_500_spd_060.txt.gz
Wind_Speed
41 49 51 46 43 36 35 31 20 17 13 18 25 18 17 20 19 18 18 16 19 20 14 13 16 15 11 14 14 14 13 11 13 13 13 13 15 20 35 35 33 29 29 33
39 48 45 45 45 43 39 35 29 15 16 22 31 22 21 20 17 17 17 19 16 21 15 11 13 12 12 12 12 13 11 10 12 10 7 5 9 13 27 31 29 27 28 27
36 45 48 51 48 44 40 37 31 31 28 20 28 21 20 20 18 18 16 15 18 18 14 11 10 10 12 10 10 11 9 8 10 12 4 4 4 3 6 18 23 21 21 21
36 41 47 50 45 43 41 32 28 31 30 29 16 20 17 19 20 18 18 14 16 16 15 12 10 9 9 10 8 8 7 6 7 9 9 5 8 5 3 3 17 20 21 21
39 41 41 50 48 42 41 29 32 32 35 31 31 24 16 16 15 16 20 18 16 14 16 16 10 8 7 8 7 5 5 5 5 5 4 5 8 10 7 7 6 7 9 14
32 39 40 47 49 47 42 37 37 38 38 40 30 28 25 16 11 16 20 24 21 17 12 15 12 12 8 9 7 6 4 5 4 3 4 3 5 2 3 2 4 5 13 11
24 35 44 44 49 47 48 43 38 40 43 41 27 30 26 16 17 18 24 24 19 21 14 15 14 15 11 9 11 9 6 2 2 3 4 4 4 2 2 1 3 2 2 1
16 30 38 43 50 49 47 46 42 41 33 26 26 35 25 18 23 27 28 22 23 21 17 14 15 17 13 11 12 11 8 5 2 2 3 5 5 5 3 3 3 5 6 9
21 18 29 37 37 46 48 47 40 21 27 28 32 27 21 23 28 21 24 26 25 22 20 18 17 19 19 14 12 12 9 8 6 5 6 7 8 7 7 8 8 6 7 8
18 16 24 26 33 39 43 41 41 42 33 27 23 21 21 24 26 21 20 22 23 25 23 21 21 20 22 19 16 14 14 14 11 10 11 9 8 8 9 7 7 9 11 12
18 20 18 24 36 32 35 39 42 44 43 31 28 27 29 27 27 26 28 28 27 28 20 22 23 20 22 24 22 19 18 18 16 16 17 15 12 11 12 13 13 11 11 13
22 22 20 15 21 18 34 37 39 40 36 34 38 27 23 24 28 27 25 25 29 24 25 27 25 24 25 24 27 25 24 23 23 21 19 18 16 15 15 16 16 16 15 14
24 24 19 17 20 17 21 33 39 42 34 31 33 30 25 36 37 31 28 32 33 33 30 28 27 26 25 26 28 28 26 26 28 27 23 21 20 19 19 21 23 21 21 21
28 24 23 17 17 24 18 18 29 38 34 36 33 32 40 37 35 40 36 37 30 29 29 30 28 27 28 28 31 31 30 29 31 32 29 27 25 25 25 26 27 28 26 26
29 26 27 27 20 27 24 16 20 36 33 30 37 35 32 28 28 31 42 36 29 31 33 31 27 27 31 29 28 31 34 34 33 33 34 33 32 32 31 31 32 32 33 31
30 32 29 29 27 30 26 27 28 28 31 32 23 31 36 26 12 30 38 32 30 31 34 26 29 32 34 35 36 35 34 34 36 36 37 35 37 36 35 34 34 35 35 35
33 34 34 29 32 35 29 32 30 18 24 29 29 26 26 35 34 39 32 36 39 31 32 34 35 37 37 38 40 40 39 37 39 39 36 38 39 39 37 38 40 39 40 40
39 34 27 32 32 32 27 32 34 36 27 28 30 28 32 36 39 28 33 35 29 30 31 33 35 36 36 39 43 44 44 43 43 41 40 40 42 42 41 42 43 44 44 43
40 48 45 29 22 17 24 29 29 29 27 25 28 29 37 39 31 34 39 34 34 35 33 33 34 36 37 40 40 41 41 44 44 43 42 42 43 45 46 46 44 45 47 48
37 47 53 45 29 30 18 18 19 25 17 23 32 38 39 37 29 36 38 35 35 36 36 33 33 35 37 36 37 40 43 45 46 47 48 48 48 49 49 49 49 51 52 52
21 36 53 49 38 33 29 25 35 31 29 35 40 41 37 33 33 31 36 31 32 30 31 31 32 32 34 36 38 39 40 44 48 50 51 53 55 54 53 54 54 55 55 54
16 20 37 54 47 47 41 35 41 42 41 42 43 45 32 32 30 26 25 24 24 23 26 30 31 33 35 37 39 41 44 46 47 49 52 53 57 59 57 58 59 60 59 59
21 12 20 33 44 49 49 51 50 49 37 36 38 42 37 29 26 24 25 25 27 29 30 32 34 35 37 39 43 45 47 49 51 52 54 57 60 64 66 64 64 63 65 64
14 11 16 20 24 29 27 28 33 35 35 36 40 37 30 29 27 26 27 28 30 31 34 35 37 39 41 43 46 49 51 53 54 58 57 63 65 66 70 71 70 66 67 68
18 11 17 20 21 19 21 27 25 25 24 26 28 28 30 30 29 29 30 32 34 36 38 40 42 44 45 46 48 51 52 57 58 59 60 61 68 68 65 71 74 71 69 67
25 14 18 27 18 27 23 18 25 26 27 28 28 29 30 31 32 34 36 38 40 42 44 46 47 48 48 49 51 53 53 56 58 56 54 56 59 65 62 60 64 67 78 71

GFSCGP_500_spd_063.txt.gz
Wind_Speed
31 31 36 35 37 44 35 37 38 37 29 20 23 22 18 18 18 18 13 14 22 17 10 17 19 12 16 8 9 10 12 12 14 12 13 5 12 14 22 29 31 33 29 27
34 35 32 34 38 44 38 36 41 35 28 25 21 20 21 25 21 18 15 15 17 17 12 17 17 10 12 6 6 8 9 10 12 11 9 5 11 9 12 15 29 33 29 30
35 29 35 37 42 45 44 40 38 35 32 22 21 29 25 17 18 20 18 15 15 15 9 13 15 10 9 5 6 7 7 8 8 10 6 4 9 6 8 9 20 27 28 29
35 25 32 36 45 47 51 44 39 37 31 28 23 23 29 26 19 18 18 16 12 16 10 7 15 12 8 7 4 6 5 7 6 7 9 9 4 4 2 7 19 26 22 22
30 25 30 37 38 48 48 46 44 42 40 36 33 32 26 27 19 14 12 15 16 20 12 8 14 14 8 7 4 5 3 5 5 3 5 6 8 9 2 5 4 20 27 26
20 24 31 28 36 44 40 43 41 41 43 44 37 36 26 21 17 15 17 17 18 20 13 10 9 13 13 9 8 5 6 5 5 2 1 3 4 6 8 8 3 5 7 15
14 24 25 35 37 44 44 43 44 43 43 45 34 36 27 16 21 19 15 19 22 24 18 9 8 13 15 13 12 8 7 8 4 2 1 3 3 3 3 3 3 3 9 14
9 17 15 31 34 39 40 49 49 44 41 38 28 38 26 15 23 21 18 27 32 21 21 14 12 12 16 16 15 12 8 9 9 6 4 2 1 2 1 0 3 3 3 3
11 8 22 22 29 36 39 49 45 35 42 43 34 32 19 20 27 24 25 30 31 25 26 21 17 14 17 18 18 14 12 11 10 11 9 7 4 3 1 4 5 4 4 4
12 9 15 11 30 30 39 39 44 45 32 32 30 26 22 24 23 28 25 27 33 32 30 24 22 18 18 19 18 17 15 14 12 13 11 8 7 7 5 6 5 4 5 6
16 12 13 17 14 30 27 32 45 42 43 32 30 29 27 28 28 31 32 29 31 32 31 26 28 23 20 19 22 21 20 16 15 16 17 16 13 12 11 10 9 8 8 8
18 14 15 14 14 18 25 23 28 45 44 39 31 35 33 38 34 32 33 36 36 36 30 30 31 31 24 20 22 25 24 24 18 20 20 18 15 14 13 13 14 12 11 11
22 18 15 14 15 16 22 24 28 39 45 44 39 37 43 43 44 39 38 38 35 30 31 29 31 30 29 24 23 24 29 29 26 23 23 21 19 18 19 18 17 17 17 18
24 20 18 17 18 13 20 19 32 36 42 37 43 43 22 31 38 46 43 41 42 35 32 31 30 29 27 28 28 23 23 29 31 27 24 23 22 23 25 26 23 20 21 22
24 22 21 19 20 17 24 24 25 40 39 41 30 36 41 34 40 50 48 45 40 42 35 31 31 28 30 30 32 29 27 24 28 30 28 26 26 28 28 29 30 31 27 26
24 24 23 20 23 24 23 16 20 25 36 41 35 42 31 47 36 41 45 49 52 49 39 33 30 29 31 31 30 33 31 32 32 29 31 32 33 34 33 33 34 36 35 33
26 25 26 24 25 27 26 22 22 27 28 38 29 23 32 39 32 37 34 39 43 44 42 36 32 32 31 32 35 34 36 35 36 38 34 35 36 35 35 36 37 36 36 37
27 24 27 26 26 29 27 25 27 29 26 26 12 24 16 24 24 29 33 30 34 40 40 39 38 39 34 35 38 39 40 39 40 41 42 40 40 40 39 40 40 39 39 42
28 28 27 31 26 30 27 26 30 30 27 26 28 31 33 25 37 35 31 32 34 33 31 29 29 32 35 36 37 38 40 43 42 44 45 45 43 43 43 43 42 40 41 43
26 27 31 31 32 26 22 31 34 35 35 38 35 30 33 42 46 39 38 38 35 28 31 35 36 35 37 37 38 39 41 44 47 47 48 48 46 46 47 48 49 48 48 47
14 15 25 33 43 34 22 21 22 33 37 39 38 37 36 31 29 31 35 36 33 35 36 37 36 37 35 36 37 39 41 42 46 47 48 49 51 51 50 52 54 56 57 56
16 13 14 24 42 51 31 26 24 26 28 28 30 30 33 34 35 33 37 41 39 36 33 30 30 30 29 32 34 37 40 41 44 47 49 51 53 55 56 57 59 61 62 61
12 15 8 13 17 38 44 40 30 25 25 30 33 35 37 39 41 42 39 34 33 32 30 30 30 31 33 35 37 38 40 42 45 47 49 50 52 56 59 61 63 68 70 68
17 14 13 10 14 26 34 37 48 45 43 42 43 42 45 44 34 35 36 33 34 32 32 32 32 33 35 38 40 42 43 44 45 47 49 52 56 59 62 65 68 71 75 78
15 13 14 13 15 17 26 34 30 34 34 37 42 43 45 43 35 33 34 36 35 34 34 34 35 37 39 41 44 45 48 49 50 52 52 53 55 59 61 63 66 69 76 80
16 2 10 20 24 27 22 30 32 22 33 31 28 30 32 34 39 34 32 35 35 36 37 39 41 42 44 46 49 51 53 55 57 56 56 58 61 60 59 51 52 57 64 72

GFSCGP_500_spd_066.txt.gz
Wind_Speed
33 34 34 34 26 27 31 31 30 27 24 37 37 40 37 31 30 32 25 22 18 11 9 12 16 15 16 11 12 9 10 12 13 11 10 8 12 12 15 20 25 28 31 32
32 33 33 33 30 30 30 34 30 28 28 36 38 36 34 27 31 27 24 22 16 11 7 10 13 13 13 10 9 8 7 10 12 11 11 8 7 12 18 23 27 32 32 36
31 35 32 35 32 32 32 36 33 33 35 39 39 37 35 28 29 25 19 20 18 12 9 7 12 10 12 10 9 8 6 7 10 10 10 3 7 6 6 11 18 26 31 36
27 33 33 32 30 31 35 31 35 39 41 47 44 35 37 33 30 26 23 22 19 15 11 7 12 9 12 12 10 8 6 5 7 8 7 8 9 5 6 7 10 23 25 27
27 29 29 28 23 28 31 33 42 48 51 46 44 42 37 32 33 26 24 21 18 18 12 6 9 13 12 12 10 9 7 5 6 6 5 4 4 8 6 4 5 20 28 29
29 23 26 23 21 29 31 34 43 45 45 46 39 34 29 21 20 24 28 23 21 20 13 11 10 17 12 13 11 10 9 8 7 5 5 4 4 3 5 7 4 8 23 30
25 19 18 20 19 22 28 31 46 48 48 44 39 38 32 20 18 26 30 30 25 19 18 12 7 18 17 12 14 13 12 11 9 6 5 3 2 2 0 1 4 6 10 8
22 15 16 14 17 18 25 29 43 49 50 46 37 47 30 21 20 24 28 25 23 21 13 11 9 12 17 15 14 15 14 13 12 10 8 6 3 2 3 2 2 2 6 6
20 18 15 11 15 15 26 35 33 41 44 42 40 40 26 25 32 32 23 23 23 18 16 15 15 19 15 18 16 16 16 16 14 14 13 10 8 6 6 6 6 2 4 5
20 16 13 9 7 17 23 28 37 41 44 48 42 35 29 25 33 33 30 25 27 25 26 26 24 20 16 18 19 18 20 18 17 18 16 14 10 10 10 7 6 6 7 7
23 16 17 11 3 10 26 29 31 41 42 35 38 36 33 33 40 36 33 32 29 29 31 31 25 19 20 20 21 23 22 22 20 20 20 18 15 12 13 13 11 11 10 9
24 20 19 15 11 7 20 27 32 38 43 34 33 30 35 39 41 36 37 38 32 32 33 31 27 22 21 23 26 27 27 25 25 23 22 22 19 15 13 14 13 14 15 14
24 21 20 20 17 13 13 27 28 32 47 43 34 35 31 47 44 40 36 38 38 38 36 36 31 26 20 18 22 24 27 26 25 27 27 24 22 20 19 18 17 15 16 19
30 26 26 21 20 18 11 18 23 31 31 44 44 40 36 43 46 41 45 44 42 42 42 34 31 27 22 22 23 26 24 22 25 27 28 27 26 25 25 25 23 22 21 19
30 27 28 26 24 26 18 14 23 26 32 40 42 46 46 38 33 51 50 49 46 43 45 38 34 28 29 28 28 28 30 27 26 23 27 28 29 30 30 30 30 29 27 27
31 28 30 28 27 28 26 23 11 23 28 39 38 42 51 49 35 38 54 51 51 52 43 42 40 38 35 34 33 34 35 35 32 32 29 30 34 34 32 32 31 35 35 35
30 28 30 29 29 30 28 24 19 16 22 24 36 41 40 50 37 36 39 38 45 48 48 45 40 43 38 41 37 38 39 39 38 38 33 35 35 34 36 38 40 38 37 39
31 29 29 28 28 29 25 23 28 26 23 30 32 29 33 34 40 38 45 46 54 52 56 45 45 45 43 38 36 39 39 39 39 36 40 38 37 38 39 40 41 41 43 42
30 30 29 28 29 27 24 23 28 22 24 23 23 35 24 26 34 27 33 39 45 47 40 35 39 45 44 35 39 45 44 43 42 42 42 40 41 43 44 42 44 45 45 46
29 30 30 29 30 30 22 26 27 29 33 25 21 21 26 24 22 22 23 35 30 28 30 33 35 35 35 37 40 41 44 45 46 47 48 47 46 48 45 45 45 45 47 49
27 29 29 28 31 31 31 29 30 29 29 30 31 31 26 21 21 24 28 28 31 35 34 37 40 40 38 39 42 45 46 47 48 49 50 51 51 51 51 52 50 50 50 51
11 17 17 19 29 34 32 29 26 33 30 28 32 31 30 32 29 25 27 28 29 31 35 36 37 38 38 39 43 45 47 48 49 50 51 52 53 55 55 57 59 60 60 61
9 9 11 13 14 23 31 37 24 25 34 30 27 22 24 28 31 33 33 32 33 37 38 37 37 40 41 42 44 44 44 44 44 45 47 48 48 50 53 54 57 60 62 64
10 14 12 15 11 14 18 36 39 25 29 34 32 33 31 30 31 34 35 32 33 37 40 42 43 42 43 42 42 42 42 42 44 45 47 49 50 51 53 56 57 57 60 63
13 16 13 19 13 13 11 27 27 34 38 33 32 33 37 40 40 39 38 41 42 41 42 40 41 40 40 41 42 42 43 44 46 48 50 53 55 57 58 59 61 61 62 64
16 17 11 22 19 19 17 17 29 20 22 25 35 32 34 37 43 44 42 48 43 40 39 40 40 40 40 42 43 46 47 49 50 53 55 57 59 61 62 63 64 64 64 63

GFSCGP_500_spd_069.txt.gz
Wind_Speed
34 34 31 37 36 32 34 32 30 30 27 35 31 29 27 32 39 43 45 42 37 25 24 17 14 11 12 12 9 11 12 12 11 9 12 16 12 14 19 24 36 34 35 31
33 33 36 34 34 32 34 33 29 27 25 37 36 39 35 35 36 41 34 39 30 29 20 15 13 11 10 10 8 10 11 11 7 8 11 12 8 13 15 20 27 39 41 40
33 32 32 32 34 34 32 31 28 28 30 37 40 44 36 33 37 39 41 34 32 29 21 17 14 10 9 10 10 11 11 11 7 7 7 2 9 14 15 20 26 31 35 41
30 31 31 30 32 35 32 28 26 31 32 37 41 41 34 31 36 37 37 36 32 31 22 20 16 10 10 11 11 13 11 10 7 6 5 5 7 9 13 16 23 28 35 40
29 29 31 29 32 34 35 30 34 37 34 39 43 42 31 34 33 34 31 33 32 29 21 19 12 11 10 12 12 13 11 10 7 8 5 5 5 4 5 12 12 17 22 26
26 32 27 31 31 31 31 29 32 32 36 44 43 44 28 36 33 30 31 31 27 27 25 21 16 12 13 11 12 12 11 10 10 9 8 3 5 5 4 3 10 13 23 22
29 28 28 30 29 27 33 26 28 32 38 40 40 44 28 33 32 31 28 25 26 28 28 24 15 9 16 11 12 14 13 12 11 9 10 7 2 4 4 3 2 8 19 25
27 25 28 28 29 23 25 21 32 35 37 38 39 46 36 31 30 30 31 29 31 30 28 23 17 11 15 13 10 13 15 14 14 12 11 11 7 3 5 8 4 1 7 14
27 26 26 27 27 22 18 24 26 33 35 34 41 36 34 34 32 32 29 25 18 29 26 24 21 15 15 16 15 11 15 17 16 16 14 13 11 9 6 7 11 5 4 6
25 24 26 27 23 17 12 15 22 30 29 34 41 34 34 39 33 30 29 23 21 25 27 25 20 20 21 19 20 16 14 16 18 20 18 17 15 13 10 9 7 9 9 8
28 26 26 24 21 17 16 22 19 22 28 31 32 36 33 35 33 34 32 28 26 26 28 28 24 23 21 19 22 21 18 18 18 20 20 20 19 18 16 15 13 10 11 10
26 27 28 21 21 17 19 26 28 21 26 29 31 33 29 32 35 36 32 29 33 32 29 26 26 23 22 22 23 21 20 20 20 21 22 22 22 22 21 18 19 16 15 15
27 28 25 22 23 21 16 22 25 28 23 29 30 27 30 31 38 39 38 36 36 39 34 31 31 28 26 25 24 23 22 21 21 19 22 24 25 25 24 22 19 18 16 17
32 31 28 21 23 23 20 18 24 27 28 25 34 34 36 39 37 42 46 45 43 42 40 37 35 35 30 29 27 25 26 26 23 24 27 27 28 27 26 25 24 24 23 22
35 34 34 26 26 25 26 19 20 26 25 30 26 40 45 30 46 41 49 49 48 49 46 43 38 37 34 32 31 28 27 28 28 27 22 24 30 29 30 29 28 28 28 29
37 35 34 31 28 28 28 27 22 18 26 28 30 39 48 44 35 13 44 48 49 46 51 48 43 39 38 35 33 33 33 29 30 30 30 29 29 30 32 34 34 35 34 34
28 35 33 30 31 28 28 30 32 21 18 20 28 32 43 52 44 36 27 40 53 51 45 46 41 46 41 37 40 35 36 32 33 34 35 34 35 37 37 37 39 40 41 39
34 34 33 30 29 27 25 30 34 29 26 20 24 26 40 42 47 29 38 29 42 49 51 49 46 43 47 44 45 45 44 39 37 39 38 39 41 41 42 43 43 43 43 44
31 32 31 31 28 26 22 29 30 35 28 24 20 26 30 35 42 37 26 36 39 43 39 45 51 45 47 50 48 42 44 46 42 42 44 40 39 41 45 48 47 49 49 50
30 32 31 30 28 28 23 27 30 33 30 22 18 18 28 25 24 24 29 36 39 45 44 46 37 37 44 46 46 46 48 47 41 39 41 41 42 44 43 44 49 53 52 50
29 30 30 28 29 29 24 27 27 29 25 23 20 25 20 26 15 19 27 24 23 24 16 19 23 26 27 29 32 34 38 41 43 45 46 46 48 48 48 48 48 51 52 56
26 26 26 26 28 29 20 25 32 31 24 21 19 21 24 25 23 22 18 23 22 27 28 25 26 30 32 34 36 37 39 42 45 45 46 48 49 50 51 50 49 51 52 55
14 10 15 18 22 26 23 27 31 30 27 19 13 16 18 20 16 20 20 23 26 30 31 29 30 30 31 32 34 36 39 42 45 46 48 50 51 53 54 55 54 53 53 53
19 4 9 14 15 18 20 26 30 35 33 29 28 26 39 37 30 32 28 33 33 34 35 34 38 37 33 32 34 37 40 43 46 48 49 50 50 51 53 54 54 56 57 59
18 12 14 15 18 12 12 22 27 41 34 28 34 41 36 35 39 35 34 31 32 33 34 36 37 38 41 41 42 42 44 46 46 47 47 47 48 50 52 54 57 59 62 64
12 20 17 19 22 15 14 13 19 23 25 34 30 38 47 44 37 35 35 36 38 39 41 43 46 50 51 48 45 44 44 46 47 46 48 49 52 54 56 58 60 62 65 67